Wetterdaten: Sonntag, 06.02.2022
Datum Zeit Temp. Aussen Temp. o. S. Temp +5cm Feuchte Auss Luftdruck Regen Sonnenschein Regendauer Solar Windben Empfang
06.02.2022 00:00 7,6 C 6,7 C 3,3 C 79 % 1015,0 hPa 0,0 l/m 0 min 0 min 0 W/m 61,2 km/h (7 Bft) 97,87 %
06.02.2022 00:02 7,6 C 6,7 C 3,3 C 80 % 1015,1 hPa 0,0 l/m 0 min 0 min 0 W/m 54,7 km/h (7 Bft) 95,65 %
06.02.2022 00:04 7,6 C 6,7 C 3,3 C 80 % 1015,1 hPa 0,0 l/m 0 min 2 min 0 W/m 54,7 km/h (7 Bft) 100,00 %
06.02.2022 00:08 7,6 C 6,7 C 3,3 C 81 % 1015,0 hPa 0,0 l/m 0 min 4 min 0 W/m 45,1 km/h (6 Bft) 100,00 %
06.02.2022 00:10 7,5 C 6,7 C 2,8 C 82 % 1014,9 hPa 0,0 l/m 0 min 2 min 0 W/m 38,6 km/h (5 Bft) 97,87 %
06.02.2022 00:12 7,4 C 6,7 C 2,8 C 82 % 1015,1 hPa 0,0 l/m 0 min 2 min 0 W/m 38,6 km/h (5 Bft) 97,87 %
06.02.2022 00:14 7,4 C 6,7 C 2,8 C 82 % 1014,9 hPa 0,0 l/m 0 min 2 min 0 W/m 38,6 km/h (5 Bft) 97,87 %
06.02.2022 00:16 7,4 C 6,7 C 2,8 C 83 % 1014,8 hPa 0,0 l/m 0 min 2 min 0 W/m 32,2 km/h (5 Bft) 52,38 %
06.02.2022 00:18 7,3 C 6,7 C 2,8 C 83 % 1015,1 hPa 0,0 l/m 0 min 2 min 0 W/m 35,4 km/h (5 Bft) 97,87 %
06.02.2022 00:20 7,3 C 6,1 C 2,8 C 84 % 1014,9 hPa 0,0 l/m 0 min 2 min 0 W/m 29,0 km/h (5 Bft) 100,00 %
06.02.2022 00:22 7,2 C 6,1 C 2,2 C 84 % 1014,8 hPa 0,0 l/m 0 min 2 min 0 W/m 45,1 km/h (6 Bft) 100,00 %
06.02.2022 00:24 7,2 C 6,1 C 2,2 C 85 % 1014,8 hPa 0,0 l/m 0 min 2 min 0 W/m 38,6 km/h (5 Bft) 100,00 %
06.02.2022 00:26 7,1 C 6,1 C 2,2 C 85 % 1014,9 hPa 0,0 l/m 0 min 2 min 0 W/m 45,1 km/h (6 Bft) 100,00 %
06.02.2022 00:28 7,1 C 6,1 C 2,2 C 86 % 1014,9 hPa 0,0 l/m 0 min 2 min 0 W/m 35,4 km/h (5 Bft) 100,00 %
06.02.2022 00:30 7,1 C 6,1 C 1,7 C 86 % 1014,9 hPa 0,0 l/m 0 min 2 min 0 W/m 38,6 km/h (5 Bft) 100,00 %
06.02.2022 00:32 7,0 C 5,6 C 1,7 C 86 % 1014,8 hPa 0,0 l/m 0 min 2 min 0 W/m 29,0 km/h (5 Bft) 100,00 %
06.02.2022 00:34 6,9 C 5,6 C 1,7 C 87 % 1014,9 hPa 0,0 l/m 0 min 2 min 0 W/m 19,3 km/h (3 Bft) 100,00 %
06.02.2022 00:36 6,9 C 5,6 C 1,7 C 87 % 1014,8 hPa 0,2 l/m 0 min 2 min 0 W/m 35,4 km/h (5 Bft) 100,00 %
06.02.2022 00:38 6,8 C 5,6 C 1,7 C 87 % 1014,8 hPa 0,0 l/m 0 min 2 min 0 W/m 45,1 km/h (6 Bft) 100,00 %
06.02.2022 00:40 6,8 C 5,6 C 1,7 C 88 % 1014,6 hPa 0,0 l/m 0 min 2 min 0 W/m 35,4 km/h (5 Bft) 100,00 %
06.02.2022 00:42 6,8 C 5,6 C 1,7 C 88 % 1014,8 hPa 0,0 l/m 0 min 2 min 0 W/m 45,1 km/h (6 Bft) 100,00 %
06.02.2022 00:44 6,7 C 5,6 C 1,7 C 88 % 1014,7 hPa 0,0 l/m 0 min 2 min 0 W/m 51,5 km/h (7 Bft) 100,00 %
06.02.2022 00:46 6,8 C 5,6 C 1,7 C 89 % 1014,6 hPa 0,0 l/m 0 min 2 min 0 W/m 38,6 km/h (5 Bft) 100,00 %
06.02.2022 00:48 6,7 C 5,6 C 1,7 C 89 % 1014,5 hPa 0,0 l/m 0 min 2 min 0 W/m 41,8 km/h (6 Bft) 100,00 %
06.02.2022 00:50 6,7 C 5,6 C 1,7 C 89 % 1014,6 hPa 0,0 l/m 0 min 2 min 0 W/m 51,5 km/h (7 Bft) 100,00 %
06.02.2022 00:52 6,7 C 6,1 C 1,7 C 89 % 1014,5 hPa 0,2 l/m 0 min 2 min 0 W/m 45,1 km/h (6 Bft) 100,00 %
06.02.2022 00:54 6,7 C 5,6 C 1,7 C 89 % 1014,3 hPa 0,0 l/m 0 min 2 min 0 W/m 45,1 km/h (6 Bft) 100,00 %
06.02.2022 00:56 6,7 C 5,6 C 1,7 C 89 % 1014,4 hPa 0,0 l/m 0 min 2 min 0 W/m 29,0 km/h (5 Bft) 97,83 %
06.02.2022 00:58 6,6 C 5,6 C 1,7 C 90 % 1014,3 hPa 0,0 l/m 0 min 2 min 0 W/m 25,7 km/h (4 Bft) 100,00 %
06.02.2022 01:00 6,6 C 5,6 C 1,7 C 90 % 1014,3 hPa 0,0 l/m 0 min 2 min 0 W/m 51,5 km/h (7 Bft) 100,00 %
06.02.2022 01:02 6,6 C 5,6 C 1,7 C 90 % 1014,2 hPa 0,0 l/m 0 min 2 min 0 W/m 32,2 km/h (5 Bft) 100,00 %
06.02.2022 01:04 6,6 C 5,6 C 1,7 C 90 % 1014,2 hPa 0,0 l/m 0 min 2 min 0 W/m 32,2 km/h (5 Bft) 97,87 %
06.02.2022 01:06 6,6 C 5,6 C 1,7 C 90 % 1014,3 hPa 0,0 l/m 0 min 2 min 0 W/m 32,2 km/h (5 Bft) 100,00 %
06.02.2022 01:08 6,6 C 5,6 C 1,7 C 90 % 1014,2 hPa 0,0 l/m 0 min 2 min 0 W/m 29,0 km/h (5 Bft) 100,00 %
06.02.2022 01:10 6,6 C 5,6 C 1,7 C 90 % 1014,1 hPa 0,0 l/m 0 min 2 min 0 W/m 22,5 km/h (4 Bft) 100,00 %
06.02.2022 01:12 6,6 C 5,6 C 1,7 C 90 % 1014,1 hPa 0,0 l/m 0 min 2 min 0 W/m 41,8 km/h (6 Bft) 100,00 %
06.02.2022 01:14 6,6 C 5,6 C 1,7 C 90 % 1014,0 hPa 0,0 l/m 0 min 2 min 0 W/m 48,3 km/h (6 Bft) 97,87 %
06.02.2022 01:16 6,6 C 5,6 C 1,7 C 90 % 1014,1 hPa 0,0 l/m 0 min 2 min 0 W/m 41,8 km/h (6 Bft) 100,00 %
06.02.2022 01:18 6,6 C 5,6 C 1,7 C 90 % 1013,9 hPa 0,0 l/m 0 min 2 min 0 W/m 32,2 km/h (5 Bft) 95,74 %
06.02.2022 01:20 6,6 C 5,6 C 1,7 C 90 % 1013,8 hPa 0,0 l/m 0 min 2 min 0 W/m 29,0 km/h (5 Bft) 98,15 %
06.02.2022 01:22 6,6 C 5,6 C 1,7 C 90 % 1013,8 hPa 0,0 l/m 0 min 2 min 0 W/m 35,4 km/h (5 Bft) 98,00 %
06.02.2022 01:24 6,6 C 6,1 C 1,7 C 90 % 1013,7 hPa 0,0 l/m 0 min 2 min 0 W/m 38,6 km/h (5 Bft) 95,65 %
06.02.2022 01:26 6,6 C 6,1 C 2,2 C 90 % 1013,8 hPa 0,0 l/m 0 min 2 min 0 W/m 32,2 km/h (5 Bft) 97,87 %
06.02.2022 01:28 6,7 C 6,1 C 2,2 C 90 % 1013,6 hPa 0,0 l/m 0 min 2 min 0 W/m 32,2 km/h (5 Bft) 95,74 %
06.02.2022 01:30 6,7 C 6,1 C 2,2 C 90 % 1013,9 hPa 0,0 l/m 0 min 0 min 0 W/m 35,4 km/h (5 Bft) 97,87 %
06.02.2022 01:32 6,7 C 6,1 C 2,2 C 90 % 1013,5 hPa 0,0 l/m 0 min 2 min 0 W/m 41,8 km/h (6 Bft) 93,62 %
06.02.2022 01:34 6,7 C 6,1 C 2,2 C 89 % 1013,6 hPa 0,0 l/m 0 min 0 min 0 W/m 48,3 km/h (6 Bft) 93,62 %
06.02.2022 01:36 6,7 C 6,1 C 2,2 C 90 % 1013,9 hPa 0,0 l/m 0 min 2 min 0 W/m 41,8 km/h (6 Bft) 95,65 %
06.02.2022 01:38 6,8 C 6,1 C 2,2 C 89 % 1013,6 hPa 0,0 l/m 0 min 2 min 0 W/m 48,3 km/h (6 Bft) 95,74 %
06.02.2022 01:40 6,8 C 6,1 C 2,2 C 89 % 1013,5 hPa 0,0 l/m 0 min 0 min 0 W/m 25,7 km/h (4 Bft) 95,74 %
06.02.2022 01:42 6,8 C 6,1 C 2,2 C 89 % 1013,5 hPa 0,0 l/m 0 min 0 min 0 W/m 38,6 km/h (5 Bft) 97,87 %
06.02.2022 01:44 6,8 C 6,1 C 2,2 C 89 % 1013,6 hPa 0,0 l/m 0 min 0 min 0 W/m 51,5 km/h (7 Bft) 95,74 %
06.02.2022 01:46 6,8 C 6,1 C 2,2 C 89 % 1013,5 hPa 0,0 l/m 0 min 0 min 0 W/m 22,5 km/h (4 Bft) 97,87 %
06.02.2022 01:48 6,8 C 6,1 C 2,2 C 89 % 1013,3 hPa 0,0 l/m 0 min 0 min 0 W/m 35,4 km/h (5 Bft) 100,00 %
06.02.2022 01:50 6,8 C 6,1 C 2,2 C 89 % 1013,4 hPa 0,0 l/m 0 min 0 min 0 W/m 45,1 km/h (6 Bft) 93,48 %
06.02.2022 01:52 6,8 C 6,1 C 2,2 C 89 % 1013,3 hPa 0,0 l/m 0 min 0 min 0 W/m 29,0 km/h (5 Bft) 97,87 %
06.02.2022 01:54 6,8 C 6,1 C 2,8 C 89 % 1013,3 hPa 0,0 l/m 0 min 0 min 0 W/m 35,4 km/h (5 Bft) 93,62 %
06.02.2022 01:56 6,8 C 6,1 C 2,8 C 88 % 1013,3 hPa 0,0 l/m 0 min 0 min 0 W/m 57,9 km/h (7 Bft) 97,87 %
06.02.2022 01:58 6,9 C 6,1 C 2,8 C 88 % 1013,1 hPa 0,0 l/m 0 min 0 min 0 W/m 35,4 km/h (5 Bft) 97,87 %
06.02.2022 02:00 6,9 C 6,1 C 2,8 C 88 % 1013,1 hPa 0,0 l/m 0 min 0 min 0 W/m 38,6 km/h (5 Bft) 95,65 %
06.02.2022 02:02 6,9 C 6,1 C 2,8 C 88 % 1013,2 hPa 0,0 l/m 0 min 0 min 0 W/m 45,1 km/h (6 Bft) 95,74 %
06.02.2022 02:04 7,0 C 6,1 C 2,8 C 88 % 1013,1 hPa 0,0 l/m 0 min 0 min 0 W/m 41,8 km/h (6 Bft) 95,74 %
06.02.2022 02:06 7,0 C 6,1 C 2,8 C 87 % 1013,0 hPa 0,0 l/m 0 min 0 min 0 W/m 41,8 km/h (6 Bft) 93,62 %
06.02.2022 02:08 7,1 C 6,1 C 2,8 C 88 % 1013,0 hPa 0,0 l/m 0 min 0 min 0 W/m 38,6 km/h (5 Bft) 93,62 %
06.02.2022 02:10 7,1 C 6,1 C 2,8 C 87 % 1012,9 hPa 0,0 l/m 0 min 0 min 0 W/m 29,0 km/h (5 Bft) 97,87 %
06.02.2022 02:12 7,1 C 6,1 C 2,8 C 87 % 1013,1 hPa 0,0 l/m 0 min 0 min 0 W/m 51,5 km/h (7 Bft) 95,65 %
06.02.2022 02:14 7,1 C 6,1 C 2,8 C 87 % 1012,9 hPa 0,0 l/m 0 min 0 min 0 W/m 29,0 km/h (5 Bft) 95,74 %
06.02.2022 02:16 7,1 C 6,1 C 2,8 C 88 % 1013,0 hPa 0,0 l/m 0 min 0 min 0 W/m 35,4 km/h (5 Bft) 95,74 %
06.02.2022 02:18 7,1 C 6,1 C 2,8 C 88 % 1013,0 hPa 0,0 l/m 0 min 0 min 0 W/m 41,8 km/h (6 Bft) 95,74 %
06.02.2022 02:20 7,1 C 6,1 C 2,8 C 88 % 1012,9 hPa 0,0 l/m 0 min 0 min 0 W/m 41,8 km/h (6 Bft) 93,62 %
06.02.2022 02:22 7,1 C 6,1 C 2,8 C 88 % 1012,9 hPa 0,0 l/m 0 min 0 min 0 W/m 32,2 km/h (5 Bft) 95,74 %
06.02.2022 02:24 7,0 C 6,1 C 2,8 C 88 % 1012,8 hPa 0,0 l/m 0 min 0 min 0 W/m 25,7 km/h (4 Bft) 95,65 %
06.02.2022 02:26 7,0 C 6,1 C 2,8 C 88 % 1012,8 hPa 0,0 l/m 0 min 0 min 0 W/m 29,0 km/h (5 Bft) 95,74 %
06.02.2022 02:28 7,0 C 6,1 C 2,8 C 88 % 1013,0 hPa 0,0 l/m 0 min 0 min 0 W/m 25,7 km/h (4 Bft) 97,87 %
06.02.2022 02:30 7,0 C 6,1 C 2,8 C 88 % 1012,8 hPa 0,0 l/m 0 min 0 min 0 W/m 32,2 km/h (5 Bft) 97,87 %
06.02.2022 02:32 7,0 C 6,1 C 2,8 C 88 % 1012,6 hPa 0,0 l/m 0 min 0 min 0 W/m 29,0 km/h (5 Bft) 97,87 %
06.02.2022 02:34 7,0 C 6,1 C 2,8 C 88 % 1012,7 hPa 0,0 l/m 0 min 2 min 0 W/m 35,4 km/h (5 Bft) 97,87 %
06.02.2022 02:36 7,0 C 6,1 C 2,8 C 88 % 1012,7 hPa 0,0 l/m 0 min 2 min 0 W/m 25,7 km/h (4 Bft) 93,48 %
06.02.2022 02:38 6,9 C 6,1 C 2,8 C 88 % 1012,7 hPa 0,0 l/m 0 min 2 min 0 W/m 32,2 km/h (5 Bft) 97,87 %
06.02.2022 02:40 7,0 C 6,1 C 2,8 C 88 % 1012,7 hPa 0,0 l/m 0 min 2 min 0 W/m 35,4 km/h (5 Bft) 100,00 %
06.02.2022 02:42 6,9 C 6,1 C 2,8 C 89 % 1012,5 hPa 0,0 l/m 0 min 2 min 0 W/m 35,4 km/h (5 Bft) 100,00 %
06.02.2022 02:44 6,9 C 6,1 C 2,2 C 89 % 1012,6 hPa 0,0 l/m 0 min 2 min 0 W/m 35,4 km/h (5 Bft) 100,00 %
06.02.2022 02:46 6,9 C 6,1 C 2,2 C 89 % 1012,5 hPa 0,0 l/m 0 min 2 min 0 W/m 35,4 km/h (5 Bft) 97,87 %
06.02.2022 02:48 6,9 C 6,1 C 2,2 C 89 % 1012,6 hPa 0,0 l/m 0 min 2 min 0 W/m 54,7 km/h (7 Bft) 100,00 %
06.02.2022 02:50 6,9 C 6,1 C 2,2 C 89 % 1012,6 hPa 0,0 l/m 0 min 2 min 0 W/m 32,2 km/h (5 Bft) 100,00 %
06.02.2022 02:52 6,9 C 6,1 C 2,2 C 89 % 1012,5 hPa 0,0 l/m 0 min 2 min 0 W/m 29,0 km/h (5 Bft) 100,00 %
06.02.2022 02:54 6,9 C 5,6 C 2,2 C 89 % 1012,5 hPa 0,0 l/m 0 min 2 min 0 W/m 35,4 km/h (5 Bft) 100,00 %
06.02.2022 02:56 6,9 C 5,6 C 2,2 C 90 % 1012,4 hPa 0,0 l/m 0 min 2 min 0 W/m 48,3 km/h (6 Bft) 100,00 %
06.02.2022 02:58 6,9 C 5,6 C 2,2 C 90 % 1012,3 hPa 0,0 l/m 0 min 2 min 0 W/m 22,5 km/h (4 Bft) 100,00 %
06.02.2022 03:00 6,9 C 5,6 C 2,2 C 90 % 1012,4 hPa 0,2 l/m 0 min 2 min 0 W/m 45,1 km/h (6 Bft) 100,00 %
06.02.2022 03:02 6,9 C 5,6 C 2,2 C 90 % 1012,3 hPa 0,0 l/m 0 min 2 min 0 W/m 35,4 km/h (5 Bft) 97,92 %
06.02.2022 03:04 6,9 C 5,6 C 2,2 C 90 % 1012,1 hPa 0,0 l/m 0 min 2 min 0 W/m 45,1 km/h (6 Bft) 97,87 %
06.02.2022 03:06 6,9 C 5,6 C 2,2 C 90 % 1012,3 hPa 0,0 l/m 0 min 2 min 0 W/m 25,7 km/h (4 Bft) 97,87 %
06.02.2022 03:08 6,9 C 5,6 C 2,2 C 90 % 1012,2 hPa 0,0 l/m 0 min 2 min 0 W/m 25,7 km/h (4 Bft) 97,87 %
06.02.2022 03:10 6,9 C 5,6 C 2,2 C 90 % 1012,1 hPa 0,0 l/m 0 min 2 min 0 W/m 29,0 km/h (5 Bft) 97,83 %
06.02.2022 03:12 6,9 C 5,6 C 2,2 C 90 % 1012,1 hPa 0,2 l/m 0 min 2 min 0 W/m 38,6 km/h (5 Bft) 97,87 %
06.02.2022 03:14 6,9 C 5,6 C 2,2 C 90 % 1012,0 hPa 0,0 l/m 0 min 2 min 0 W/m 35,4 km/h (5 Bft) 97,87 %
06.02.2022 03:16 6,8 C 5,6 C 2,2 C 90 % 1012,3 hPa 0,0 l/m 0 min 2 min 0 W/m 41,8 km/h (6 Bft) 97,87 %
06.02.2022 03:18 6,8 C 5,6 C 2,2 C 90 % 1011,9 hPa 0,0 l/m 0 min 2 min 0 W/m 35,4 km/h (5 Bft) 95,74 %
06.02.2022 03:20 6,8 C 5,6 C 2,2 C 90 % 1011,8 hPa 0,0 l/m 0 min 2 min 0 W/m 29,0 km/h (5 Bft) 95,74 %
06.02.2022 03:22 6,8 C 5,6 C 2,2 C 90 % 1011,9 hPa 0,0 l/m 0 min 2 min 0 W/m 48,3 km/h (6 Bft) 95,65 %
06.02.2022 03:24 6,8 C 5,6 C 2,2 C 90 % 1011,9 hPa 0,0 l/m 0 min 2 min 0 W/m 32,2 km/h (5 Bft) 95,74 %
06.02.2022 03:26 6,8 C 5,6 C 2,2 C 90 % 1012,2 hPa 0,0 l/m 0 min 2 min 0 W/m 35,4 km/h (5 Bft) 97,87 %
06.02.2022 03:28 6,8 C 5,6 C 2,2 C 90 % 1011,7 hPa 0,0 l/m 0 min 2 min 0 W/m 29,0 km/h (5 Bft) 97,87 %
06.02.2022 03:30 6,8 C 5,6 C 2,2 C 90 % 1011,8 hPa 0,0 l/m 0 min 2 min 0 W/m 22,5 km/h (4 Bft) 97,87 %
06.02.2022 03:32 6,8 C 5,6 C 2,2 C 91 % 1011,6 hPa 0,0 l/m 0 min 2 min 0 W/m 22,5 km/h (4 Bft) 95,74 %
06.02.2022 03:34 6,8 C 5,6 C 2,2 C 91 % 1011,5 hPa 0,0 l/m 0 min 2 min 0 W/m 38,6 km/h (5 Bft) 97,83 %
06.02.2022 03:36 6,8 C 5,6 C 2,2 C 91 % 1011,6 hPa 0,0 l/m 0 min 2 min 0 W/m 29,0 km/h (5 Bft) 100,00 %
06.02.2022 03:38 6,8 C 5,6 C 2,2 C 91 % 1011,6 hPa 0,0 l/m 0 min 2 min 0 W/m 25,7 km/h (4 Bft) 100,00 %
06.02.2022 03:40 6,8 C 5,6 C 2,2 C 91 % 1011,5 hPa 0,0 l/m 0 min 2 min 0 W/m 19,3 km/h (3 Bft) 97,87 %
06.02.2022 03:42 6,8 C 5,6 C 2,2 C 91 % 1011,4 hPa 0,2 l/m 0 min 2 min 0 W/m 45,1 km/h (6 Bft) 97,87 %
06.02.2022 03:44 6,8 C 5,6 C 2,2 C 91 % 1011,5 hPa 0,0 l/m 0 min 2 min 0 W/m 25,7 km/h (4 Bft) 100,00 %
06.02.2022 03:46 6,8 C 5,6 C 2,2 C 91 % 1011,3 hPa 0,0 l/m 0 min 2 min 0 W/m 19,3 km/h (3 Bft) 97,87 %
06.02.2022 03:48 6,8 C 5,6 C 2,2 C 91 % 1011,2 hPa 0,0 l/m 0 min 2 min 0 W/m 22,5 km/h (4 Bft) 100,00 %
06.02.2022 03:50 6,8 C 5,6 C 2,2 C 91 % 1011,4 hPa 0,0 l/m 0 min 2 min 0 W/m 35,4 km/h (5 Bft) 97,87 %
06.02.2022 03:52 6,8 C 5,6 C 2,2 C 91 % 1011,3 hPa 0,0 l/m 0 min 2 min 0 W/m 25,7 km/h (4 Bft) 95,74 %
06.02.2022 03:54 6,8 C 5,6 C 2,2 C 91 % 1011,2 hPa 0,0 l/m 0 min 2 min 0 W/m 48,3 km/h (6 Bft) 97,87 %
06.02.2022 03:56 6,8 C 5,6 C 2,2 C 91 % 1011,3 hPa 0,2 l/m 0 min 2 min 0 W/m 25,7 km/h (4 Bft) 100,00 %
06.02.2022 03:58 6,8 C 5,6 C 2,2 C 91 % 1011,2 hPa 0,0 l/m 0 min 2 min 0 W/m 25,7 km/h (4 Bft) 100,00 %
06.02.2022 04:00 6,8 C 5,6 C 2,2 C 91 % 1011,2 hPa 0,0 l/m 0 min 2 min 0 W/m 29,0 km/h (5 Bft) 97,22 %
06.02.2022 04:02 6,8 C 5,6 C 2,2 C 91 % 1011,1 hPa 0,0 l/m 0 min 2 min 0 W/m 25,7 km/h (4 Bft) 100,00 %
06.02.2022 04:04 6,8 C 5,6 C 2,2 C 92 % 1010,9 hPa 0,0 l/m 0 min 2 min 0 W/m 25,7 km/h (4 Bft) 100,00 %
06.02.2022 04:06 6,8 C 5,6 C 2,2 C 92 % 1010,9 hPa 0,0 l/m 0 min 2 min 0 W/m 29,0 km/h (5 Bft) 97,87 %
06.02.2022 04:08 6,8 C 5,6 C 2,2 C 92 % 1010,9 hPa 0,0 l/m 0 min 2 min 0 W/m 25,7 km/h (4 Bft) 100,00 %
06.02.2022 04:10 6,8 C 5,6 C 2,2 C 92 % 1010,8 hPa 0,0 l/m 0 min 2 min 0 W/m 41,8 km/h (6 Bft) 100,00 %
06.02.2022 04:12 6,8 C 5,6 C 2,2 C 92 % 1010,7 hPa 0,2 l/m 0 min 2 min 0 W/m 54,7 km/h (7 Bft) 100,00 %
06.02.2022 04:14 6,8 C 5,6 C 2,2 C 92 % 1011,0 hPa 0,0 l/m 0 min 2 min 0 W/m 38,6 km/h (5 Bft) 97,83 %
06.02.2022 04:16 6,8 C 5,6 C 2,2 C 92 % 1011,0 hPa 0,0 l/m 0 min 2 min 0 W/m 41,8 km/h (6 Bft) 97,87 %
06.02.2022 04:18 6,8 C 5,6 C 2,2 C 92 % 1010,8 hPa 0,0 l/m 0 min 2 min 0 W/m 19,3 km/h (3 Bft) 100,00 %
06.02.2022 04:20 6,8 C 5,6 C 2,2 C 92 % 1010,7 hPa 0,0 l/m 0 min 2 min 0 W/m 35,4 km/h (5 Bft) 100,00 %
06.02.2022 04:22 6,8 C 5,6 C 2,2 C 92 % 1010,9 hPa 0,0 l/m 0 min 2 min 0 W/m 35,4 km/h (5 Bft) 95,74 %
06.02.2022 04:24 6,8 C 5,6 C 2,2 C 92 % 1010,7 hPa 0,2 l/m 0 min 2 min 0 W/m 25,7 km/h (4 Bft) 100,00 %
06.02.2022 04:26 6,8 C 5,6 C 2,2 C 92 % 1010,6 hPa 0,0 l/m 0 min 2 min 0 W/m 22,5 km/h (4 Bft) 100,00 %
06.02.2022 04:28 6,8 C 5,6 C 2,2 C 92 % 1010,7 hPa 0,0 l/m 0 min 2 min 0 W/m 32,2 km/h (5 Bft) 100,00 %
06.02.2022 04:30 6,8 C 5,6 C 2,2 C 92 % 1010,7 hPa 0,0 l/m 0 min 2 min 0 W/m 32,2 km/h (5 Bft) 95,74 %
06.02.2022 04:32 6,7 C 5,6 C 2,2 C 92 % 1010,7 hPa 0,0 l/m 0 min 2 min 0 W/m 25,7 km/h (4 Bft) 97,87 %
06.02.2022 04:34 6,7 C 5,6 C 2,2 C 92 % 1010,7 hPa 0,0 l/m 0 min 2 min 0 W/m 29,0 km/h (5 Bft) 100,00 %
06.02.2022 04:36 6,7 C 5,6 C 2,2 C 92 % 1010,7 hPa 0,0 l/m 0 min 2 min 0 W/m 45,1 km/h (6 Bft) 95,65 %
06.02.2022 04:38 6,8 C 5,6 C 2,2 C 93 % 1010,6 hPa 0,0 l/m 0 min 2 min 0 W/m 35,4 km/h (5 Bft) 95,74 %
06.02.2022 04:40 6,8 C 5,6 C 2,2 C 93 % 1010,6 hPa 0,0 l/m 0 min 2 min 0 W/m 41,8 km/h (6 Bft) 95,74 %
06.02.2022 04:42 6,8 C 5,6 C 2,2 C 93 % 1010,7 hPa 0,0 l/m 0 min 2 min 0 W/m 41,8 km/h (6 Bft) 95,74 %
06.02.2022 04:44 6,8 C 5,6 C 2,2 C 93 % 1010,6 hPa 0,2 l/m 0 min 2 min 0 W/m 29,0 km/h (5 Bft) 95,74 %
06.02.2022 04:46 6,8 C 5,6 C 2,2 C 93 % 1010,6 hPa 0,0 l/m 0 min 2 min 0 W/m 19,3 km/h (3 Bft) 93,62 %
06.02.2022 04:48 6,8 C 5,6 C 2,2 C 93 % 1010,5 hPa 0,0 l/m 0 min 2 min 0 W/m 29,0 km/h (5 Bft) 95,65 %
06.02.2022 04:50 6,7 C 5,6 C 2,2 C 93 % 1010,5 hPa 0,0 l/m 0 min 2 min 0 W/m 38,6 km/h (5 Bft) 95,74 %
06.02.2022 04:52 6,7 C 5,6 C 2,2 C 93 % 1010,5 hPa 0,0 l/m 0 min 2 min 0 W/m 41,8 km/h (6 Bft) 95,74 %
06.02.2022 04:54 6,7 C 5,6 C 2,2 C 93 % 1010,5 hPa 0,0 l/m 0 min 2 min 0 W/m 35,4 km/h (5 Bft) 95,74 %
06.02.2022 04:56 6,7 C 5,6 C 2,2 C 93 % 1010,4 hPa 0,0 l/m 0 min 2 min 0 W/m 22,5 km/h (4 Bft) 93,62 %
06.02.2022 04:58 6,7 C 5,6 C 2,2 C 93 % 1010,4 hPa 0,2 l/m 0 min 2 min 0 W/m 25,7 km/h (4 Bft) 93,62 %
06.02.2022 05:00 6,7 C 5,6 C 2,2 C 93 % 1010,3 hPa 0,0 l/m 0 min 2 min 0 W/m 35,4 km/h (5 Bft) 93,48 %
06.02.2022 05:02 6,7 C 5,6 C 2,2 C 93 % 1010,5 hPa 0,0 l/m 0 min 2 min 0 W/m 25,7 km/h (4 Bft) 93,62 %
06.02.2022 05:04 6,7 C 5,6 C 2,2 C 93 % 1010,3 hPa 0,0 l/m 0 min 2 min 0 W/m 25,7 km/h (4 Bft) 89,36 %
06.02.2022 05:06 6,7 C 5,6 C 2,2 C 93 % 1010,3 hPa 0,0 l/m 0 min 2 min 0 W/m 38,6 km/h (5 Bft) 93,62 %
06.02.2022 05:08 6,7 C 5,6 C 2,2 C 93 % 1010,3 hPa 0,0 l/m 0 min 2 min 0 W/m 41,8 km/h (6 Bft) 95,74 %
06.02.2022 05:10 6,7 C 5,6 C 2,2 C 93 % 1010,3 hPa 0,2 l/m 0 min 2 min 0 W/m 25,7 km/h (4 Bft) 93,62 %
06.02.2022 05:12 6,7 C 5,6 C 2,2 C 93 % 1010,2 hPa 0,0 l/m 0 min 2 min 0 W/m 41,8 km/h (6 Bft) 93,48 %
06.02.2022 05:14 6,7 C 5,6 C 2,2 C 93 % 1010,4 hPa 0,2 l/m 0 min 2 min 0 W/m 29,0 km/h (5 Bft) 89,36 %
06.02.2022 05:16 6,7 C 5,6 C 2,2 C 94 % 1010,3 hPa 0,0 l/m 0 min 2 min 0 W/m 22,5 km/h (4 Bft) 57,14 %
06.02.2022 05:18 6,6 C 5,0 C 2,2 C 94 % 1010,3 hPa 0,0 l/m 0 min 2 min 0 W/m 25,7 km/h (4 Bft) 91,49 %
06.02.2022 05:20 6,6 C 5,0 C 2,2 C 94 % 1010,3 hPa 0,0 l/m 0 min 2 min 0 W/m 25,7 km/h (4 Bft) 95,74 %
06.02.2022 05:22 6,6 C 5,6 C 2,2 C 94 % 1010,1 hPa 0,2 l/m 0 min 2 min 0 W/m 32,2 km/h (5 Bft) 93,62 %
06.02.2022 05:24 6,6 C 5,6 C 2,2 C 94 % 1010,2 hPa 0,0 l/m 0 min 2 min 0 W/m 48,3 km/h (6 Bft) 95,65 %
06.02.2022 05:26 6,6 C 5,6 C 2,2 C 94 % 1010,2 hPa 0,2 l/m 0 min 2 min 0 W/m 29,0 km/h (5 Bft) 93,62 %
06.02.2022 05:28 6,6 C 5,6 C 2,8 C 94 % 1010,1 hPa 0,0 l/m 0 min 2 min 0 W/m 22,5 km/h (4 Bft) 100,00 %
06.02.2022 05:30 6,6 C 5,6 C 2,8 C 94 % 1010,0 hPa 0,0 l/m 0 min 2 min 0 W/m 25,7 km/h (4 Bft) 100,00 %
06.02.2022 05:32 6,6 C 5,6 C 2,8 C 94 % 1009,8 hPa 0,0 l/m 0 min 2 min 0 W/m 22,5 km/h (4 Bft) 97,92 %
06.02.2022 05:34 6,6 C 5,6 C 2,8 C 94 % 1010,0 hPa 0,0 l/m 0 min 2 min 0 W/m 38,6 km/h (5 Bft) 100,00 %
06.02.2022 05:36 6,6 C 5,6 C 2,8 C 94 % 1010,0 hPa 0,0 l/m 0 min 2 min 0 W/m 38,6 km/h (5 Bft) 97,87 %
06.02.2022 05:38 6,6 C 5,6 C 2,8 C 94 % 1009,7 hPa 0,2 l/m 0 min 2 min 0 W/m 29,0 km/h (5 Bft) 97,87 %
06.02.2022 05:40 6,6 C 5,6 C 2,8 C 94 % 1009,9 hPa 0,0 l/m 0 min 2 min 0 W/m 48,3 km/h (6 Bft) 100,00 %
06.02.2022 05:42 6,6 C 5,6 C 2,8 C 94 % 1009,8 hPa 0,0 l/m 0 min 2 min 0 W/m 25,7 km/h (4 Bft) 100,00 %
06.02.2022 05:44 6,6 C 5,6 C 2,8 C 94 % 1009,8 hPa 0,0 l/m 0 min 2 min 0 W/m 32,2 km/h (5 Bft) 97,87 %
06.02.2022 05:46 6,6 C 5,6 C 2,8 C 94 % 1009,6 hPa 0,2 l/m 0 min 2 min 0 W/m 25,7 km/h (4 Bft) 97,83 %
06.02.2022 05:48 6,6 C 5,6 C 2,8 C 94 % 1009,6 hPa 0,0 l/m 0 min 2 min 0 W/m 22,5 km/h (4 Bft) 100,00 %
06.02.2022 05:50 6,6 C 5,6 C 2,8 C 94 % 1009,4 hPa 0,0 l/m 0 min 2 min 0 W/m 29,0 km/h (5 Bft) 97,87 %
06.02.2022 05:52 6,6 C 5,6 C 2,8 C 94 % 1009,3 hPa 0,0 l/m 0 min 2 min 0 W/m 29,0 km/h (5 Bft) 97,87 %
06.02.2022 05:54 6,6 C 5,6 C 2,8 C 94 % 1009,3 hPa 0,0 l/m 0 min 2 min 0 W/m 29,0 km/h (5 Bft) 97,87 %
06.02.2022 05:56 6,6 C 5,6 C 2,8 C 94 % 1009,4 hPa 0,0 l/m 0 min 2 min 0 W/m 32,2 km/h (5 Bft) 100,00 %
06.02.2022 05:58 6,6 C 5,6 C 2,8 C 95 % 1009,3 hPa 0,0 l/m 0 min 2 min 0 W/m 25,7 km/h (4 Bft) 100,00 %
06.02.2022 06:00 6,6 C 5,6 C 2,8 C 95 % 1009,1 hPa 0,0 l/m 0 min 2 min 0 W/m 29,0 km/h (5 Bft) 100,00 %
06.02.2022 06:02 6,6 C 5,6 C 2,8 C 95 % 1009,2 hPa 0,0 l/m 0 min 2 min 0 W/m 35,4 km/h (5 Bft) 100,00 %
06.02.2022 06:04 6,6 C 5,6 C 2,8 C 95 % 1009,2 hPa 0,0 l/m 0 min 2 min 0 W/m 32,2 km/h (5 Bft) 100,00 %
06.02.2022 06:08 6,7 C 5,6 C 2,8 C 95 % 1009,5 hPa 0,0 l/m 0 min 4 min 0 W/m 48,3 km/h (6 Bft) 100,00 %
06.02.2022 06:10 6,7 C 5,6 C 2,8 C 95 % 1009,1 hPa 0,0 l/m 0 min 2 min 0 W/m 41,8 km/h (6 Bft) 100,00 %
06.02.2022 06:12 6,7 C 5,6 C 2,8 C 95 % 1009,1 hPa 0,0 l/m 0 min 2 min 0 W/m 29,0 km/h (5 Bft) 100,00 %
06.02.2022 06:14 6,7 C 5,6 C 2,8 C 94 % 1009,2 hPa 0,0 l/m 0 min 2 min 0 W/m 48,3 km/h (6 Bft) 100,00 %
06.02.2022 06:16 6,7 C 5,6 C 2,8 C 95 % 1009,1 hPa 0,0 l/m 0 min 2 min 0 W/m 32,2 km/h (5 Bft) 100,00 %
06.02.2022 06:18 6,7 C 5,6 C 2,8 C 94 % 1009,1 hPa 0,0 l/m 0 min 2 min 0 W/m 25,7 km/h (4 Bft) 100,00 %
06.02.2022 06:20 6,8 C 5,6 C 2,8 C 94 % 1008,9 hPa 0,0 l/m 0 min 2 min 0 W/m 25,7 km/h (4 Bft) 97,87 %
06.02.2022 06:22 6,7 C 5,6 C 2,8 C 94 % 1008,8 hPa 0,0 l/m 0 min 2 min 0 W/m 32,2 km/h (5 Bft) 97,83 %
06.02.2022 06:24 6,8 C 5,6 C 2,8 C 94 % 1008,9 hPa 0,0 l/m 0 min 2 min 0 W/m 25,7 km/h (4 Bft) 100,00 %
06.02.2022 06:26 6,7 C 6,1 C 2,8 C 94 % 1008,9 hPa 0,0 l/m 0 min 2 min 0 W/m 67,6 km/h (8 Bft) 100,00 %
06.02.2022 06:28 6,8 C 6,1 C 2,8 C 95 % 1008,8 hPa 0,2 l/m 0 min 2 min 0 W/m 54,7 km/h (7 Bft) 100,00 %
06.02.2022 06:30 6,8 C 6,1 C 2,8 C 94 % 1008,8 hPa 0,0 l/m 0 min 2 min 0 W/m 25,7 km/h (4 Bft) 100,00 %
06.02.2022 06:32 6,8 C 6,1 C 2,8 C 94 % 1009,0 hPa 0,0 l/m 0 min 2 min 0 W/m 29,0 km/h (5 Bft) 100,00 %
06.02.2022 06:34 6,8 C 6,1 C 2,8 C 94 % 1008,7 hPa 0,0 l/m 0 min 2 min 0 W/m 35,4 km/h (5 Bft) 100,00 %
06.02.2022 06:36 6,8 C 6,1 C 2,8 C 94 % 1008,7 hPa 0,0 l/m 0 min 2 min 0 W/m 22,5 km/h (4 Bft) 100,00 %
06.02.2022 06:38 6,8 C 6,1 C 2,8 C 94 % 1008,7 hPa 0,0 l/m 0 min 2 min 0 W/m 38,6 km/h (5 Bft) 97,87 %
06.02.2022 06:40 6,8 C 6,1 C 2,8 C 94 % 1008,8 hPa 0,0 l/m 0 min 2 min 0 W/m 25,7 km/h (4 Bft) 100,00 %
06.02.2022 06:42 6,8 C 6,1 C 2,8 C 94 % 1008,7 hPa 0,0 l/m 0 min 2 min 0 W/m 25,7 km/h (4 Bft) 100,00 %
06.02.2022 06:44 6,8 C 6,1 C 2,8 C 94 % 1008,7 hPa 0,0 l/m 0 min 2 min 0 W/m 32,2 km/h (5 Bft) 97,87 %
06.02.2022 06:46 6,8 C 6,1 C 2,8 C 94 % 1008,5 hPa 0,0 l/m 0 min 2 min 0 W/m 19,3 km/h (3 Bft) 97,83 %
06.02.2022 06:48 6,8 C 6,1 C 2,8 C 94 % 1008,6 hPa 0,0 l/m 0 min 2 min 0 W/m 25,7 km/h (4 Bft) 100,00 %
06.02.2022 06:50 6,8 C 5,6 C 2,8 C 94 % 1008,5 hPa 0,0 l/m 0 min 2 min 0 W/m 25,7 km/h (4 Bft) 97,87 %
06.02.2022 06:52 6,9 C 5,6 C 2,8 C 94 % 1008,5 hPa 0,0 l/m 0 min 2 min 0 W/m 51,5 km/h (7 Bft) 97,87 %
06.02.2022 06:54 6,9 C 5,6 C 2,8 C 94 % 1008,4 hPa 0,2 l/m 0 min 2 min 0 W/m 29,0 km/h (5 Bft) 97,87 %
06.02.2022 06:56 6,9 C 6,1 C 2,8 C 94 % 1008,4 hPa 0,0 l/m 0 min 2 min 0 W/m 29,0 km/h (5 Bft) 97,83 %
06.02.2022 06:58 6,9 C 6,1 C 2,8 C 94 % 1008,6 hPa 0,0 l/m 0 min 2 min 0 W/m 32,2 km/h (5 Bft) 95,74 %
06.02.2022 07:00 6,9 C 6,1 C 2,8 C 94 % 1008,6 hPa 0,0 l/m 0 min 2 min 0 W/m 32,2 km/h (5 Bft) 97,87 %
06.02.2022 07:02 6,9 C 6,1 C 2,8 C 94 % 1008,4 hPa 0,0 l/m 0 min 2 min 0 W/m 29,0 km/h (5 Bft) 91,49 %
06.02.2022 07:04 6,9 C 6,1 C 2,8 C 94 % 1008,4 hPa 0,0 l/m 0 min 2 min 0 W/m 19,3 km/h (3 Bft) 95,74 %
06.02.2022 07:06 6,9 C 5,6 C 2,8 C 94 % 1008,4 hPa 0,0 l/m 0 min 2 min 0 W/m 19,3 km/h (3 Bft) 97,87 %
06.02.2022 07:08 6,8 C 5,6 C 2,8 C 94 % 1008,3 hPa 0,0 l/m 0 min 2 min 0 W/m 16,1 km/h (3 Bft) 93,48 %
06.02.2022 07:10 6,8 C 5,6 C 2,8 C 94 % 1008,3 hPa 0,0 l/m 0 min 2 min 0 W/m 45,1 km/h (6 Bft) 95,74 %
06.02.2022 07:12 6,8 C 5,6 C 2,8 C 95 % 1008,4 hPa 0,0 l/m 0 min 2 min 0 W/m 32,2 km/h (5 Bft) 95,74 %
06.02.2022 07:14 6,9 C 6,1 C 2,8 C 95 % 1008,2 hPa 0,0 l/m 0 min 2 min 0 W/m 57,9 km/h (7 Bft) 95,74 %
06.02.2022 07:16 6,9 C 5,6 C 2,8 C 95 % 1008,3 hPa 0,0 l/m 0 min 2 min 0 W/m 41,8 km/h (6 Bft) 95,74 %
06.02.2022 07:18 6,9 C 5,6 C 2,8 C 95 % 1008,1 hPa 0,0 l/m 0 min 2 min 0 W/m 41,8 km/h (6 Bft) 95,74 %
06.02.2022 07:20 6,9 C 6,1 C 2,8 C 95 % 1008,2 hPa 0,0 l/m 0 min 2 min 0 W/m 35,4 km/h (5 Bft) 95,65 %
06.02.2022 07:22 6,9 C 6,1 C 2,8 C 95 % 1008,2 hPa 0,2 l/m 0 min 2 min 0 W/m 32,2 km/h (5 Bft) 97,87 %
06.02.2022 07:24 6,9 C 6,1 C 2,8 C 95 % 1008,2 hPa 0,0 l/m 0 min 2 min 0 W/m 25,7 km/h (4 Bft) 97,87 %
06.02.2022 07:26 6,9 C 6,1 C 2,8 C 95 % 1008,2 hPa 0,0 l/m 0 min 2 min 0 W/m 22,5 km/h (4 Bft) 95,74 %
06.02.2022 07:28 6,9 C 6,1 C 2,8 C 95 % 1008,1 hPa 0,0 l/m 0 min 2 min 0 W/m 22,5 km/h (4 Bft) 97,87 %
06.02.2022 07:30 6,9 C 6,1 C 2,8 C 95 % 1008,1 hPa 0,0 l/m 0 min 2 min 0 W/m 32,2 km/h (5 Bft) 97,87 %
06.02.2022 07:32 6,9 C 6,1 C 3,3 C 95 % 1008,0 hPa 0,0 l/m 0 min 2 min 0 W/m 22,5 km/h (4 Bft) 97,83 %
06.02.2022 07:34 6,9 C 6,1 C 3,3 C 95 % 1008,1 hPa 0,0 l/m 0 min 2 min 0 W/m 25,7 km/h (4 Bft) 97,87 %
06.02.2022 07:36 6,9 C 6,1 C 3,3 C 95 % 1008,1 hPa 0,0 l/m 0 min 2 min 0 W/m 29,0 km/h (5 Bft) 97,87 %
06.02.2022 07:38 6,9 C 6,1 C 3,3 C 95 % 1008,1 hPa 0,0 l/m 0 min 2 min 0 W/m 32,2 km/h (5 Bft) 97,87 %
06.02.2022 07:40 6,9 C 6,1 C 3,3 C 95 % 1007,9 hPa 0,0 l/m 0 min 2 min 0 W/m 48,3 km/h (6 Bft) 91,49 %
06.02.2022 07:42 7,0 C 6,1 C 3,3 C 95 % 1007,9 hPa 0,0 l/m 0 min 2 min 0 W/m 29,0 km/h (5 Bft) 95,74 %
06.02.2022 07:44 7,0 C 6,1 C 3,3 C 95 % 1008,0 hPa 0,0 l/m 0 min 2 min 0 W/m 45,1 km/h (6 Bft) 95,65 %
06.02.2022 07:46 7,0 C 6,1 C 3,3 C 95 % 1007,8 hPa 0,0 l/m 0 min 2 min 0 W/m 19,3 km/h (3 Bft) 95,74 %
06.02.2022 07:48 7,0 C 6,1 C 3,3 C 95 % 1008,0 hPa 0,0 l/m 0 min 2 min 0 W/m 29,0 km/h (5 Bft) 95,74 %
06.02.2022 07:50 7,0 C 6,1 C 3,3 C 95 % 1007,9 hPa 0,0 l/m 0 min 2 min 0 W/m 22,5 km/h (4 Bft) 95,74 %
06.02.2022 07:52 7,0 C 6,1 C 3,3 C 95 % 1007,7 hPa 0,0 l/m 0 min 2 min 0 W/m 22,5 km/h (4 Bft) 95,74 %
06.02.2022 07:54 7,0 C 6,1 C 3,3 C 95 % 1007,6 hPa 0,2 l/m 0 min 2 min 0 W/m 35,4 km/h (5 Bft) 95,74 %
06.02.2022 07:56 7,0 C 6,1 C 3,3 C 95 % 1007,6 hPa 0,0 l/m 0 min 2 min 0 W/m 35,4 km/h (5 Bft) 93,48 %
06.02.2022 07:58 7,1 C 6,1 C 3,3 C 95 % 1007,5 hPa 0,0 l/m 0 min 2 min 0 W/m 25,7 km/h (4 Bft) 97,87 %
06.02.2022 08:00 7,1 C 6,1 C 3,3 C 95 % 1007,6 hPa 0,0 l/m 0 min 2 min 0 W/m 35,4 km/h (5 Bft) 97,87 %
06.02.2022 08:02 7,1 C 6,1 C 3,3 C 95 % 1007,5 hPa 0,0 l/m 0 min 2 min 0 W/m 32,2 km/h (5 Bft) 97,87 %
06.02.2022 08:04 7,1 C 6,1 C 3,3 C 95 % 1007,6 hPa 0,0 l/m 0 min 2 min 0 W/m 22,5 km/h (4 Bft) 97,87 %
06.02.2022 08:06 7,1 C 6,1 C 3,3 C 95 % 1007,6 hPa 0,0 l/m 0 min 2 min 0 W/m 29,0 km/h (5 Bft) 97,87 %
06.02.2022 08:08 7,1 C 6,1 C 3,3 C 95 % 1007,6 hPa 0,0 l/m 0 min 2 min 0 W/m 22,5 km/h (4 Bft) 95,74 %
06.02.2022 08:10 7,0 C 6,1 C 3,3 C 95 % 1007,7 hPa 0,0 l/m 0 min 2 min 0 W/m 25,7 km/h (4 Bft) 97,83 %
06.02.2022 08:12 7,1 C 6,1 C 3,3 C 95 % 1007,5 hPa 0,0 l/m 0 min 2 min 0 W/m 19,3 km/h (3 Bft) 97,87 %
06.02.2022 08:14 7,1 C 6,1 C 3,3 C 95 % 1007,6 hPa 0,0 l/m 0 min 2 min 0 W/m 38,6 km/h (5 Bft) 95,74 %
06.02.2022 08:16 7,1 C 6,1 C 3,3 C 95 % 1007,6 hPa 0,0 l/m 0 min 2 min 0 W/m 29,0 km/h (5 Bft) 97,87 %
06.02.2022 08:18 7,1 C 6,1 C 3,3 C 95 % 1007,5 hPa 0,0 l/m 0 min 2 min 0 W/m 19,3 km/h (3 Bft) 97,87 %
06.02.2022 08:20 7,1 C 6,1 C 3,3 C 95 % 1007,5 hPa 0,0 l/m 0 min 2 min 0 W/m 25,7 km/h (4 Bft) 97,87 %
06.02.2022 08:22 7,1 C 6,1 C 3,3 C 95 % 1007,5 hPa 0,0 l/m 0 min 2 min 0 W/m 32,2 km/h (5 Bft) 97,83 %
06.02.2022 08:24 7,1 C 6,1 C 3,3 C 95 % 1007,4 hPa 0,0 l/m 0 min 2 min 0 W/m 48,3 km/h (6 Bft) 97,87 %
06.02.2022 08:26 7,1 C 6,1 C 3,3 C 95 % 1007,3 hPa 0,0 l/m 0 min 2 min 4 W/m 25,7 km/h (4 Bft) 97,87 %
06.02.2022 08:28 7,1 C 6,1 C 3,3 C 95 % 1007,3 hPa 0,0 l/m 0 min 2 min 0 W/m 22,5 km/h (4 Bft) 97,87 %
06.02.2022 08:30 7,0 C 6,1 C 3,3 C 95 % 1007,3 hPa 0,2 l/m 0 min 2 min 0 W/m 22,5 km/h (4 Bft) 100,00 %
06.02.2022 08:32 7,0 C 6,1 C 3,3 C 95 % 1007,1 hPa 0,0 l/m 0 min 2 min 0 W/m 38,6 km/h (5 Bft) 100,00 %
06.02.2022 08:34 7,1 C 6,1 C 3,3 C 95 % 1007,1 hPa 0,0 l/m 0 min 2 min 2 W/m 32,2 km/h (5 Bft) 100,00 %
06.02.2022 08:36 7,0 C 6,1 C 3,3 C 95 % 1007,1 hPa 0,0 l/m 0 min 2 min 5 W/m 35,4 km/h (5 Bft) 97,87 %
06.02.2022 08:38 7,0 C 6,1 C 3,3 C 95 % 1007,0 hPa 0,0 l/m 0 min 2 min 5 W/m 41,8 km/h (6 Bft) 100,00 %
06.02.2022 08:40 7,0 C 6,1 C 3,3 C 95 % 1007,0 hPa 0,0 l/m 0 min 2 min 7 W/m 25,7 km/h (4 Bft) 100,00 %
06.02.2022 08:42 7,0 C 6,1 C 3,3 C 95 % 1007,0 hPa 0,2 l/m 0 min 2 min 7 W/m 22,5 km/h (4 Bft) 95,74 %
06.02.2022 08:44 7,0 C 6,1 C 3,3 C 95 % 1006,8 hPa 0,0 l/m 0 min 2 min 8 W/m 22,5 km/h (4 Bft) 95,74 %
06.02.2022 08:46 7,0 C 6,1 C 3,3 C 95 % 1006,9 hPa 0,0 l/m 0 min 2 min 8 W/m 51,5 km/h (7 Bft) 95,65 %
06.02.2022 08:48 7,1 C 6,1 C 3,3 C 95 % 1006,8 hPa 0,0 l/m 0 min 2 min 9 W/m 41,8 km/h (6 Bft) 97,87 %
06.02.2022 08:50 7,1 C 6,1 C 3,3 C 95 % 1006,8 hPa 0,0 l/m 0 min 2 min 9 W/m 41,8 km/h (6 Bft) 95,74 %
06.02.2022 08:52 7,1 C 6,1 C 3,3 C 95 % 1006,8 hPa 0,0 l/m 0 min 2 min 11 W/m 51,5 km/h (7 Bft) 97,87 %
06.02.2022 08:54 7,1 C 6,1 C 3,3 C 95 % 1006,6 hPa 0,0 l/m 0 min 2 min 12 W/m 41,8 km/h (6 Bft) 97,87 %
06.02.2022 08:56 7,1 C 6,1 C 3,3 C 95 % 1006,7 hPa 0,0 l/m 0 min 2 min 12 W/m 41,8 km/h (6 Bft) 97,87 %
06.02.2022 08:58 7,1 C 6,1 C 3,3 C 95 % 1006,5 hPa 0,0 l/m 0 min 2 min 12 W/m 54,7 km/h (7 Bft) 95,65 %
06.02.2022 09:00 7,1 C 6,1 C 3,3 C 95 % 1006,5 hPa 0,0 l/m 0 min 2 min 14 W/m 25,7 km/h (4 Bft) 55,56 %
06.02.2022 09:02 7,1 C 6,1 C 3,3 C 95 % 1006,5 hPa 0,0 l/m 0 min 2 min 13 W/m 45,1 km/h (6 Bft) 97,87 %
06.02.2022 09:04 7,1 C 6,1 C 3,3 C 95 % 1006,5 hPa 0,0 l/m 0 min 2 min 15 W/m 41,8 km/h (6 Bft) 97,87 %
06.02.2022 09:06 7,1 C 6,1 C 3,3 C 95 % 1006,3 hPa 0,0 l/m 0 min 2 min 17 W/m 29,0 km/h (5 Bft) 97,87 %
06.02.2022 09:08 7,1 C 6,1 C 3,3 C 95 % 1006,3 hPa 0,0 l/m 0 min 2 min 22 W/m 45,1 km/h (6 Bft) 97,87 %
06.02.2022 09:10 7,1 C 6,1 C 3,3 C 95 % 1006,2 hPa 0,0 l/m 0 min 2 min 25 W/m 38,6 km/h (5 Bft) 97,83 %
06.02.2022 09:12 7,1 C 6,1 C 3,3 C 95 % 1006,2 hPa 0,0 l/m 0 min 2 min 26 W/m 45,1 km/h (6 Bft) 97,87 %
06.02.2022 09:14 7,1 C 6,1 C 3,3 C 95 % 1006,1 hPa 0,0 l/m 0 min 2 min 26 W/m 38,6 km/h (5 Bft) 97,87 %
06.02.2022 09:16 7,1 C 6,1 C 3,3 C 95 % 1006,1 hPa 0,0 l/m 0 min 2 min 26 W/m 32,2 km/h (5 Bft) 100,00 %
06.02.2022 09:18 7,1 C 6,1 C 3,3 C 95 % 1005,9 hPa 0,0 l/m 0 min 2 min 25 W/m 32,2 km/h (5 Bft) 100,00 %
06.02.2022 09:20 7,1 C 6,1 C 3,3 C 95 % 1005,9 hPa 0,0 l/m 0 min 2 min 25 W/m 25,7 km/h (4 Bft) 100,00 %
06.02.2022 09:22 7,1 C 6,1 C 3,3 C 95 % 1005,8 hPa 0,0 l/m 0 min 2 min 20 W/m 45,1 km/h (6 Bft) 100,00 %
06.02.2022 09:24 7,1 C 6,1 C 3,3 C 95 % 1005,9 hPa 0,0 l/m 0 min 2 min 18 W/m 38,6 km/h (5 Bft) 97,87 %
06.02.2022 09:26 7,2 C 6,1 C 3,3 C 95 % 1005,8 hPa 0,0 l/m 0 min 2 min 20 W/m 35,4 km/h (5 Bft) 100,00 %
06.02.2022 09:28 7,2 C 6,1 C 3,3 C 95 % 1005,8 hPa 0,0 l/m 0 min 2 min 22 W/m 41,8 km/h (6 Bft) 100,00 %
06.02.2022 09:30 7,2 C 6,1 C 3,3 C 95 % 1006,1 hPa 0,0 l/m 0 min 2 min 26 W/m 41,8 km/h (6 Bft) 100,00 %
06.02.2022 09:32 7,2 C 6,1 C 3,3 C 95 % 1005,7 hPa 0,0 l/m 0 min 2 min 27 W/m 45,1 km/h (6 Bft) 97,87 %
06.02.2022 09:34 7,2 C 6,1 C 3,3 C 95 % 1005,8 hPa 0,0 l/m 0 min 2 min 27 W/m 64,4 km/h (8 Bft) 97,83 %
06.02.2022 09:36 7,2 C 6,1 C 3,3 C 95 % 1005,6 hPa 0,0 l/m 0 min 2 min 28 W/m 32,2 km/h (5 Bft) 100,00 %
06.02.2022 09:38 7,3 C 6,1 C 3,3 C 95 % 1005,6 hPa 0,0 l/m 0 min 2 min 25 W/m 48,3 km/h (6 Bft) 100,00 %
06.02.2022 09:40 7,3 C 6,7 C 3,3 C 95 % 1005,6 hPa 0,0 l/m 0 min 2 min 25 W/m 41,8 km/h (6 Bft) 100,00 %
06.02.2022 09:42 7,3 C 6,7 C 3,3 C 95 % 1005,6 hPa 0,0 l/m 0 min 2 min 25 W/m 51,5 km/h (7 Bft) 100,00 %
06.02.2022 09:44 7,3 C 6,7 C 3,9 C 95 % 1005,5 hPa 0,0 l/m 0 min 2 min 30 W/m 29,0 km/h (5 Bft) 97,87 %
06.02.2022 09:46 7,3 C 6,7 C 3,9 C 95 % 1005,5 hPa 0,0 l/m 0 min 2 min 30 W/m 35,4 km/h (5 Bft) 100,00 %
06.02.2022 09:48 7,3 C 6,7 C 3,9 C 95 % 1005,4 hPa 0,2 l/m 0 min 2 min 32 W/m 35,4 km/h (5 Bft) 100,00 %
06.02.2022 09:50 7,3 C 6,7 C 3,9 C 95 % 1005,4 hPa 0,0 l/m 0 min 2 min 35 W/m 54,7 km/h (7 Bft) 97,87 %
06.02.2022 09:52 7,3 C 6,7 C 3,9 C 95 % 1005,3 hPa 0,0 l/m 0 min 2 min 30 W/m 51,5 km/h (7 Bft) 97,87 %
06.02.2022 09:54 7,4 C 6,7 C 3,9 C 95 % 1005,2 hPa 0,0 l/m 0 min 2 min 27 W/m 57,9 km/h (7 Bft) 97,87 %
06.02.2022 09:56 7,4 C 6,7 C 3,9 C 94 % 1005,2 hPa 0,0 l/m 0 min 2 min 34 W/m 35,4 km/h (5 Bft) 95,74 %
06.02.2022 09:58 7,4 C 6,7 C 3,9 C 94 % 1005,2 hPa 0,0 l/m 0 min 2 min 37 W/m 38,6 km/h (5 Bft) 97,83 %
06.02.2022 10:00 7,4 C 6,7 C 3,9 C 94 % 1005,2 hPa 0,0 l/m 0 min 2 min 37 W/m 38,6 km/h (5 Bft) 97,87 %
06.02.2022 10:02 7,5 C 6,7 C 3,9 C 94 % 1005,2 hPa 0,0 l/m 0 min 2 min 36 W/m 48,3 km/h (6 Bft) 95,74 %
06.02.2022 10:04 7,5 C 6,7 C 3,9 C 94 % 1005,1 hPa 0,0 l/m 0 min 2 min 36 W/m 41,8 km/h (6 Bft) 97,87 %
06.02.2022 10:06 7,5 C 6,7 C 3,9 C 94 % 1005,1 hPa 0,0 l/m 0 min 2 min 33 W/m 38,6 km/h (5 Bft) 97,87 %
06.02.2022 10:08 7,5 C 6,7 C 3,9 C 94 % 1005,0 hPa 0,0 l/m 0 min 2 min 32 W/m 38,6 km/h (5 Bft) 97,87 %
06.02.2022 10:10 7,6 C 6,7 C 3,9 C 94 % 1005,0 hPa 0,0 l/m 0 min 2 min 32 W/m 41,8 km/h (6 Bft) 97,83 %
06.02.2022 10:12 7,6 C 6,7 C 3,9 C 94 % 1005,0 hPa 0,0 l/m 0 min 2 min 33 W/m 48,3 km/h (6 Bft) 95,74 %
06.02.2022 10:14 7,6 C 6,7 C 3,9 C 94 % 1005,0 hPa 0,0 l/m 0 min 2 min 35 W/m 38,6 km/h (5 Bft) 97,87 %
06.02.2022 10:16 7,6 C 6,7 C 3,9 C 94 % 1005,0 hPa 0,2 l/m 0 min 2 min 35 W/m 51,5 km/h (7 Bft) 97,87 %
06.02.2022 10:18 7,6 C 6,7 C 3,9 C 94 % 1004,8 hPa 0,0 l/m 0 min 2 min 33 W/m 51,5 km/h (7 Bft) 50,00 %
06.02.2022 10:20 7,6 C 6,7 C 3,9 C 94 % 1004,8 hPa 0,0 l/m 0 min 2 min 35 W/m 51,5 km/h (7 Bft) 97,83 %
06.02.2022 10:22 7,6 C 6,7 C 3,9 C 94 % 1004,9 hPa 0,0 l/m 0 min 2 min 36 W/m 32,2 km/h (5 Bft) 97,87 %
06.02.2022 10:24 7,6 C 6,7 C 3,9 C 94 % 1004,7 hPa 0,2 l/m 0 min 2 min 34 W/m 29,0 km/h (5 Bft) 97,87 %
06.02.2022 10:26 7,6 C 6,7 C 3,9 C 94 % 1004,7 hPa 0,0 l/m 0 min 2 min 32 W/m 41,8 km/h (6 Bft) 95,74 %
06.02.2022 10:28 7,6 C 6,1 C 3,9 C 94 % 1004,7 hPa 0,0 l/m 0 min 2 min 33 W/m 32,2 km/h (5 Bft) 97,87 %
06.02.2022 10:30 7,5 C 6,1 C 3,9 C 94 % 1004,6 hPa 0,0 l/m 0 min 2 min 37 W/m 45,1 km/h (6 Bft) 95,74 %
06.02.2022 10:32 7,6 C 6,1 C 3,9 C 95 % 1004,7 hPa 0,2 l/m 0 min 2 min 37 W/m 45,1 km/h (6 Bft) 97,87 %
06.02.2022 10:34 7,6 C 6,1 C 3,9 C 95 % 1004,5 hPa 0,0 l/m 0 min 2 min 36 W/m 48,3 km/h (6 Bft) 97,83 %
06.02.2022 10:36 7,5 C 6,1 C 3,9 C 95 % 1004,4 hPa 0,0 l/m 0 min 2 min 36 W/m 48,3 km/h (6 Bft) 100,00 %
06.02.2022 10:38 7,5 C 6,1 C 3,9 C 95 % 1004,4 hPa 0,0 l/m 0 min 2 min 35 W/m 45,1 km/h (6 Bft) 97,87 %
06.02.2022 10:40 7,5 C 6,1 C 3,9 C 95 % 1004,4 hPa 0,0 l/m 0 min 2 min 36 W/m 41,8 km/h (6 Bft) 97,87 %
06.02.2022 10:42 7,5 C 6,1 C 3,9 C 95 % 1004,4 hPa 0,2 l/m 0 min 2 min 43 W/m 54,7 km/h (7 Bft) 95,74 %
06.02.2022 10:44 7,5 C 6,1 C 3,9 C 95 % 1004,3 hPa 0,0 l/m 0 min 2 min 42 W/m 64,4 km/h (8 Bft) 95,65 %
06.02.2022 10:46 7,4 C 6,1 C 3,9 C 95 % 1004,2 hPa 0,0 l/m 0 min 2 min 34 W/m 38,6 km/h (5 Bft) 95,74 %
06.02.2022 10:48 7,4 C 6,1 C 3,9 C 95 % 1004,3 hPa 0,0 l/m 0 min 2 min 29 W/m 32,2 km/h (5 Bft) 95,74 %
06.02.2022 10:50 7,4 C 6,1 C 3,9 C 95 % 1004,2 hPa 0,2 l/m 0 min 2 min 32 W/m 25,7 km/h (4 Bft) 91,49 %
06.02.2022 10:52 7,4 C 6,1 C 3,9 C 95 % 1004,2 hPa 0,0 l/m 0 min 2 min 33 W/m 35,4 km/h (5 Bft) 95,74 %
06.02.2022 10:54 7,4 C 6,1 C 3,9 C 95 % 1004,2 hPa 0,0 l/m 0 min 2 min 29 W/m 38,6 km/h (5 Bft) 95,74 %
06.02.2022 10:56 7,4 C 6,1 C 3,9 C 95 % 1004,1 hPa 0,0 l/m 0 min 2 min 29 W/m 32,2 km/h (5 Bft) 95,65 %
06.02.2022 10:58 7,4 C 6,1 C 3,9 C 95 % 1004,2 hPa 0,0 l/m 0 min 2 min 30 W/m 45,1 km/h (6 Bft) 95,74 %
06.02.2022 11:00 7,4 C 6,1 C 3,9 C 95 % 1004,2 hPa 0,0 l/m 0 min 2 min 31 W/m 41,8 km/h (6 Bft) 95,74 %
06.02.2022 11:02 7,4 C 6,1 C 3,9 C 95 % 1004,1 hPa 0,2 l/m 0 min 2 min 33 W/m 32,2 km/h (5 Bft) 93,62 %
06.02.2022 11:04 7,4 C 6,1 C 3,9 C 95 % 1004,1 hPa 0,0 l/m 0 min 2 min 31 W/m 29,0 km/h (5 Bft) 95,74 %
06.02.2022 11:06 7,4 C 6,1 C 3,9 C 95 % 1004,0 hPa 0,2 l/m 0 min 2 min 30 W/m 29,0 km/h (5 Bft) 95,74 %
06.02.2022 11:08 7,4 C 6,1 C 3,9 C 95 % 1003,9 hPa 0,0 l/m 0 min 2 min 30 W/m 41,8 km/h (6 Bft) 93,48 %
06.02.2022 11:10 7,4 C 6,1 C 3,9 C 95 % 1003,9 hPa 0,0 l/m 0 min 2 min 26 W/m 41,8 km/h (6 Bft) 97,87 %
06.02.2022 11:12 7,4 C 6,1 C 3,9 C 95 % 1003,8 hPa 0,2 l/m 0 min 2 min 26 W/m 35,4 km/h (5 Bft) 97,87 %
06.02.2022 11:14 7,3 C 6,1 C 3,9 C 95 % 1003,7 hPa 0,0 l/m 0 min 2 min 30 W/m 38,6 km/h (5 Bft) 97,87 %
06.02.2022 11:16 7,3 C 6,1 C 3,9 C 95 % 1003,7 hPa 0,0 l/m 0 min 2 min 29 W/m 54,7 km/h (7 Bft) 97,87 %
06.02.2022 11:18 7,4 C 6,1 C 3,9 C 95 % 1003,6 hPa 0,2 l/m 0 min 2 min 29 W/m 35,4 km/h (5 Bft) 95,74 %
06.02.2022 11:20 7,3 C 6,1 C 3,9 C 95 % 1003,5 hPa 0,0 l/m 0 min 2 min 29 W/m 48,3 km/h (6 Bft) 97,83 %
06.02.2022 11:22 7,3 C 6,1 C 3,9 C 95 % 1003,4 hPa 0,2 l/m 0 min 2 min 30 W/m 38,6 km/h (5 Bft) 97,87 %
06.02.2022 11:24 7,3 C 6,1 C 3,9 C 95 % 1003,4 hPa 0,0 l/m 0 min 2 min 27 W/m 48,3 km/h (6 Bft) 95,74 %
06.02.2022 11:26 7,3 C 6,1 C 3,9 C 95 % 1003,3 hPa 0,2 l/m 0 min 2 min 29 W/m 64,4 km/h (8 Bft) 97,87 %
06.02.2022 11:28 7,4 C 6,1 C 3,9 C 95 % 1003,3 hPa 0,0 l/m 0 min 2 min 33 W/m 51,5 km/h (7 Bft) 97,87 %
06.02.2022 11:30 7,4 C 6,1 C 3,9 C 95 % 1003,2 hPa 0,0 l/m 0 min 2 min 34 W/m 48,3 km/h (6 Bft) 95,74 %
06.02.2022 11:32 7,4 C 6,1 C 3,9 C 95 % 1003,0 hPa 0,0 l/m 0 min 2 min 40 W/m 35,4 km/h (5 Bft) 100,00 %
06.02.2022 11:34 7,4 C 6,1 C 3,9 C 95 % 1003,0 hPa 0,2 l/m 0 min 2 min 41 W/m 45,1 km/h (6 Bft) 100,00 %
06.02.2022 11:36 7,4 C 6,1 C 3,9 C 95 % 1002,9 hPa 0,0 l/m 0 min 2 min 39 W/m 45,1 km/h (6 Bft) 97,87 %
06.02.2022 11:38 7,4 C 6,1 C 3,9 C 95 % 1002,7 hPa 0,0 l/m 0 min 2 min 38 W/m 48,3 km/h (6 Bft) 97,87 %
06.02.2022 11:40 7,3 C 6,1 C 3,9 C 95 % 1002,6 hPa 0,2 l/m 0 min 2 min 38 W/m 45,1 km/h (6 Bft) 100,00 %
06.02.2022 11:42 7,3 C 6,1 C 3,9 C 95 % 1002,7 hPa 0,0 l/m 0 min 2 min 35 W/m 38,6 km/h (5 Bft) 97,87 %
06.02.2022 11:44 7,3 C 6,1 C 3,9 C 95 % 1002,6 hPa 0,0 l/m 0 min 2 min 31 W/m 35,4 km/h (5 Bft) 100,00 %
06.02.2022 11:46 7,3 C 6,1 C 3,9 C 95 % 1002,6 hPa 0,0 l/m 0 min 2 min 30 W/m 51,5 km/h (7 Bft) 100,00 %
06.02.2022 11:48 7,4 C 6,1 C 3,9 C 95 % 1002,6 hPa 0,2 l/m 0 min 2 min 32 W/m 29,0 km/h (5 Bft) 100,00 %
06.02.2022 11:50 7,4 C 6,1 C 3,9 C 95 % 1002,3 hPa 0,0 l/m 0 min 2 min 36 W/m 32,2 km/h (5 Bft) 100,00 %
06.02.2022 11:52 7,4 C 6,1 C 3,9 C 95 % 1002,2 hPa 0,0 l/m 0 min 2 min 35 W/m 35,4 km/h (5 Bft) 100,00 %
06.02.2022 11:54 7,4 C 6,1 C 3,9 C 95 % 1002,4 hPa 0,2 l/m 0 min 2 min 36 W/m 48,3 km/h (6 Bft) 100,00 %
06.02.2022 11:56 7,4 C 6,1 C 3,9 C 95 % 1002,3 hPa 0,0 l/m 0 min 2 min 35 W/m 41,8 km/h (6 Bft) 100,00 %
06.02.2022 11:58 7,4 C 6,1 C 3,9 C 95 % 1002,0 hPa 0,0 l/m 0 min 2 min 35 W/m 45,1 km/h (6 Bft) 100,00 %
06.02.2022 12:00 7,4 C 6,1 C 3,9 C 95 % 1002,1 hPa 0,0 l/m 0 min 2 min 40 W/m 45,1 km/h (6 Bft) 100,00 %
06.02.2022 12:02 7,4 C 6,1 C 3,9 C 95 % 1002,0 hPa 0,2 l/m 0 min 2 min 39 W/m 54,7 km/h (7 Bft) 100,00 %
06.02.2022 12:04 7,4 C 6,1 C 3,9 C 95 % 1002,0 hPa 0,0 l/m 0 min 2 min 38 W/m 35,4 km/h (5 Bft) 100,00 %
06.02.2022 12:08 7,4 C 6,1 C 3,9 C 95 % 1001,9 hPa 0,2 l/m 0 min 4 min 28 W/m 38,6 km/h (5 Bft) 98,92 %
06.02.2022 12:10 7,4 C 6,1 C 3,9 C 95 % 1001,9 hPa 0,0 l/m 0 min 2 min 26 W/m 48,3 km/h (6 Bft) 100,00 %
06.02.2022 12:12 7,4 C 6,1 C 3,9 C 95 % 1001,7 hPa 0,2 l/m 0 min 2 min 28 W/m 35,4 km/h (5 Bft) 100,00 %
06.02.2022 12:14 7,4 C 6,1 C 3,9 C 95 % 1001,7 hPa 0,2 l/m 0 min 2 min 32 W/m 41,8 km/h (6 Bft) 100,00 %
06.02.2022 12:16 7,4 C 6,1 C 3,9 C 95 % 1001,6 hPa 0,0 l/m 0 min 2 min 33 W/m 45,1 km/h (6 Bft) 95,74 %
06.02.2022 12:18 7,4 C 6,1 C 3,9 C 95 % 1001,5 hPa 0,0 l/m 0 min 2 min 29 W/m 74,0 km/h (8 Bft) 100,00 %
06.02.2022 12:20 7,4 C 6,1 C 3,9 C 95 % 1001,5 hPa 0,2 l/m 0 min 2 min 29 W/m 32,2 km/h (5 Bft) 97,87 %
06.02.2022 12:22 7,4 C 6,1 C 3,9 C 95 % 1001,5 hPa 0,2 l/m 0 min 2 min 32 W/m 54,7 km/h (7 Bft) 100,00 %
06.02.2022 12:24 7,4 C 6,1 C 3,9 C 95 % 1001,5 hPa 0,0 l/m 0 min 2 min 29 W/m 54,7 km/h (7 Bft) 100,00 %
06.02.2022 12:26 7,4 C 6,1 C 3,9 C 95 % 1001,3 hPa 0,0 l/m 0 min 2 min 29 W/m 35,4 km/h (5 Bft) 100,00 %
06.02.2022 12:28 7,4 C 6,1 C 4,4 C 95 % 1001,2 hPa 0,2 l/m 0 min 2 min 31 W/m 61,2 km/h (7 Bft) 100,00 %
06.02.2022 12:30 7,4 C 6,1 C 4,4 C 95 % 1001,0 hPa 0,2 l/m 0 min 2 min 30 W/m 41,8 km/h (6 Bft) 97,87 %
06.02.2022 12:32 7,5 C 6,1 C 4,4 C 95 % 1001,0 hPa 0,0 l/m 0 min 2 min 32 W/m 41,8 km/h (6 Bft) 97,87 %
06.02.2022 12:34 7,5 C 6,1 C 4,4 C 95 % 1000,8 hPa 0,0 l/m 0 min 2 min 28 W/m 45,1 km/h (6 Bft) 95,74 %
06.02.2022 12:36 7,5 C 6,1 C 4,4 C 95 % 1000,8 hPa 0,2 l/m 0 min 2 min 33 W/m 38,6 km/h (5 Bft) 95,74 %
06.02.2022 12:38 7,4 C 6,1 C 4,4 C 95 % 1000,6 hPa 0,0 l/m 0 min 2 min 32 W/m 48,3 km/h (6 Bft) 95,74 %
06.02.2022 12:40 7,5 C 6,1 C 4,4 C 95 % 1000,8 hPa 0,2 l/m 0 min 2 min 27 W/m 51,5 km/h (7 Bft) 95,74 %
06.02.2022 12:42 7,5 C 6,1 C 4,4 C 95 % 1000,6 hPa 0,0 l/m 0 min 2 min 26 W/m 35,4 km/h (5 Bft) 93,48 %
06.02.2022 12:44 7,5 C 6,1 C 4,4 C 95 % 1000,7 hPa 0,2 l/m 0 min 2 min 22 W/m 54,7 km/h (7 Bft) 95,74 %
06.02.2022 12:46 7,5 C 6,1 C 4,4 C 95 % 1000,4 hPa 0,0 l/m 0 min 2 min 20 W/m 45,1 km/h (6 Bft) 95,74 %
06.02.2022 12:48 7,5 C 6,1 C 4,4 C 95 % 1000,3 hPa 0,2 l/m 0 min 2 min 24 W/m 32,2 km/h (5 Bft) 95,74 %
06.02.2022 12:50 7,5 C 6,1 C 4,4 C 95 % 1000,2 hPa 0,0 l/m 0 min 2 min 31 W/m 45,1 km/h (6 Bft) 95,74 %
06.02.2022 12:52 7,5 C 6,1 C 4,4 C 95 % 1000,0 hPa 0,2 l/m 0 min 2 min 35 W/m 35,4 km/h (5 Bft) 95,74 %
06.02.2022 12:54 7,5 C 6,1 C 4,4 C 95 % 999,8 hPa 0,0 l/m 0 min 2 min 26 W/m 51,5 km/h (7 Bft) 95,65 %
06.02.2022 12:56 7,5 C 6,1 C 4,4 C 95 % 999,9 hPa 0,2 l/m 0 min 2 min 19 W/m 45,1 km/h (6 Bft) 93,62 %
06.02.2022 12:58 7,6 C 6,1 C 4,4 C 95 % 1000,0 hPa 0,0 l/m 0 min 2 min 21 W/m 38,6 km/h (5 Bft) 95,74 %
06.02.2022 13:00 7,6 C 6,1 C 4,4 C 95 % 999,9 hPa 0,0 l/m 0 min 2 min 28 W/m 45,1 km/h (6 Bft) 95,74 %
06.02.2022 13:02 7,6 C 6,1 C 4,4 C 95 % 999,9 hPa 0,2 l/m 0 min 2 min 32 W/m 45,1 km/h (6 Bft) 95,74 %
06.02.2022 13:04 7,6 C 6,1 C 4,4 C 95 % 999,8 hPa 0,0 l/m 0 min 2 min 37 W/m 22,5 km/h (4 Bft) 97,87 %
06.02.2022 13:06 7,6 C 6,1 C 4,4 C 95 % 999,7 hPa 0,2 l/m 0 min 2 min 29 W/m 32,2 km/h (5 Bft) 97,83 %
06.02.2022 13:08 7,6 C 6,1 C 4,4 C 95 % 999,6 hPa 0,0 l/m 0 min 2 min 25 W/m 29,0 km/h (5 Bft) 95,74 %
06.02.2022 13:10 7,6 C 6,1 C 4,4 C 95 % 999,6 hPa 0,2 l/m 0 min 2 min 25 W/m 32,2 km/h (5 Bft) 97,87 %
06.02.2022 13:12 7,6 C 6,1 C 4,4 C 95 % 999,6 hPa 0,2 l/m 0 min 2 min 26 W/m 51,5 km/h (7 Bft) 93,62 %
06.02.2022 13:14 7,6 C 6,1 C 4,4 C 95 % 999,5 hPa 0,0 l/m 0 min 2 min 29 W/m 41,8 km/h (6 Bft) 97,87 %
06.02.2022 13:16 7,6 C 6,1 C 4,4 C 95 % 999,4 hPa 0,0 l/m 0 min 2 min 38 W/m 35,4 km/h (5 Bft) 97,87 %
06.02.2022 13:18 7,6 C 6,1 C 4,4 C 95 % 999,3 hPa 0,0 l/m 0 min 2 min 40 W/m 38,6 km/h (5 Bft) 100,00 %
06.02.2022 13:20 7,7 C 6,1 C 4,4 C 95 % 999,2 hPa 0,2 l/m 0 min 2 min 41 W/m 41,8 km/h (6 Bft) 97,87 %
06.02.2022 13:22 7,7 C 6,7 C 4,4 C 95 % 999,1 hPa 0,0 l/m 0 min 2 min 38 W/m 38,6 km/h (5 Bft) 100,00 %
06.02.2022 13:24 7,7 C 6,7 C 4,4 C 95 % 999,1 hPa 0,2 l/m 0 min 2 min 37 W/m 38,6 km/h (5 Bft) 100,00 %
06.02.2022 13:26 7,7 C 6,7 C 4,4 C 95 % 999,1 hPa 0,0 l/m 0 min 2 min 37 W/m 29,0 km/h (5 Bft) 100,00 %
06.02.2022 13:28 7,8 C 6,7 C 4,4 C 96 % 999,1 hPa 0,0 l/m 0 min 2 min 45 W/m 41,8 km/h (6 Bft) 100,00 %
06.02.2022 13:30 7,8 C 6,7 C 4,4 C 96 % 999,1 hPa 0,2 l/m 0 min 2 min 41 W/m 54,7 km/h (7 Bft) 100,00 %
06.02.2022 13:32 7,8 C 6,7 C 4,4 C 96 % 999,1 hPa 0,0 l/m 0 min 2 min 35 W/m 38,6 km/h (5 Bft) 100,00 %
06.02.2022 13:34 7,8 C 6,7 C 4,4 C 96 % 999,0 hPa 0,2 l/m 0 min 2 min 34 W/m 54,7 km/h (7 Bft) 100,00 %
06.02.2022 13:36 7,9 C 6,7 C 4,4 C 96 % 999,0 hPa 0,0 l/m 0 min 2 min 37 W/m 25,7 km/h (4 Bft) 100,00 %
06.02.2022 13:38 7,9 C 6,7 C 5,0 C 96 % 999,0 hPa 0,0 l/m 0 min 2 min 52 W/m 35,4 km/h (5 Bft) 97,87 %
06.02.2022 13:40 7,9 C 6,7 C 5,0 C 96 % 998,9 hPa 0,2 l/m 0 min 2 min 67 W/m 29,0 km/h (5 Bft) 95,74 %
06.02.2022 13:42 7,9 C 6,7 C 5,0 C 96 % 999,0 hPa 0,0 l/m 0 min 2 min 60 W/m 25,7 km/h (4 Bft) 97,83 %
06.02.2022 13:44 8,0 C 6,7 C 5,0 C 96 % 998,9 hPa 0,2 l/m 0 min 2 min 46 W/m 19,3 km/h (3 Bft) 97,87 %
06.02.2022 13:46 8,0 C 6,7 C 5,0 C 96 % 999,0 hPa 0,0 l/m 0 min 2 min 29 W/m 32,2 km/h (5 Bft) 97,87 %
06.02.2022 13:48 8,1 C 7,2 C 5,0 C 96 % 999,1 hPa 0,2 l/m 0 min 2 min 33 W/m 35,4 km/h (5 Bft) 97,87 %
06.02.2022 13:50 8,1 C 7,2 C 5,0 C 96 % 999,1 hPa 0,2 l/m 0 min 2 min 30 W/m 38,6 km/h (5 Bft) 97,87 %
06.02.2022 13:52 8,1 C 7,2 C 5,0 C 96 % 999,2 hPa 0,0 l/m 0 min 2 min 29 W/m 35,4 km/h (5 Bft) 97,83 %
06.02.2022 13:54 8,2 C 7,2 C 5,0 C 96 % 999,3 hPa 0,2 l/m 0 min 2 min 23 W/m 25,7 km/h (4 Bft) 97,87 %
06.02.2022 13:56 8,2 C 7,2 C 5,0 C 96 % 999,6 hPa 0,0 l/m 0 min 2 min 29 W/m 51,5 km/h (7 Bft) 97,87 %
06.02.2022 13:58 8,3 C 7,2 C 5,0 C 96 % 999,5 hPa 0,2 l/m 0 min 2 min 32 W/m 35,4 km/h (5 Bft) 97,87 %
06.02.2022 14:00 8,3 C 7,2 C 5,0 C 96 % 999,4 hPa 0,2 l/m 0 min 2 min 23 W/m 32,2 km/h (5 Bft) 95,74 %
06.02.2022 14:02 8,3 C 7,2 C 5,0 C 96 % 999,9 hPa 0,2 l/m 0 min 2 min 20 W/m 29,0 km/h (5 Bft) 97,87 %
06.02.2022 14:04 8,2 C 6,7 C 5,0 C 96 % 1000,0 hPa 0,0 l/m 0 min 2 min 42 W/m 45,1 km/h (6 Bft) 97,87 %
06.02.2022 14:06 8,0 C 6,7 C 4,4 C 96 % 1000,2 hPa 0,0 l/m 0 min 2 min 54 W/m 54,7 km/h (7 Bft) 95,65 %
06.02.2022 14:08 7,8 C 6,7 C 4,4 C 95 % 1000,4 hPa 0,2 l/m 0 min 2 min 56 W/m 35,4 km/h (5 Bft) 97,87 %
06.02.2022 14:10 7,6 C 6,1 C 4,4 C 95 % 1000,5 hPa 0,0 l/m 0 min 2 min 53 W/m 45,1 km/h (6 Bft) 97,87 %
06.02.2022 14:12 7,3 C 6,1 C 3,9 C 94 % 1000,7 hPa 0,0 l/m 0 min 2 min 56 W/m 64,4 km/h (8 Bft) 95,74 %
06.02.2022 14:14 7,2 C 6,1 C 3,9 C 94 % 1000,8 hPa 0,0 l/m 0 min 2 min 54 W/m 38,6 km/h (5 Bft) 97,87 %
06.02.2022 14:16 7,1 C 6,1 C 3,9 C 94 % 1000,8 hPa 0,0 l/m 0 min 2 min 44 W/m 38,6 km/h (5 Bft) 95,65 %
06.02.2022 14:18 7,0 C 6,1 C 3,9 C 94 % 1000,8 hPa 0,0 l/m 0 min 2 min 34 W/m 38,6 km/h (5 Bft) 97,87 %
06.02.2022 14:20 6,9 C 6,1 C 3,9 C 94 % 1000,9 hPa 0,2 l/m 0 min 2 min 32 W/m 35,4 km/h (5 Bft) 97,87 %
06.02.2022 14:22 6,8 C 6,1 C 3,3 C 93 % 1001,0 hPa 0,0 l/m 0 min 2 min 36 W/m 41,8 km/h (6 Bft) 93,62 %
06.02.2022 14:24 6,8 C 6,1 C 3,3 C 93 % 1001,2 hPa 0,0 l/m 0 min 2 min 37 W/m 22,5 km/h (4 Bft) 97,87 %
06.02.2022 14:26 6,7 C 5,6 C 3,3 C 94 % 1001,2 hPa 0,0 l/m 0 min 2 min 31 W/m 25,7 km/h (4 Bft) 97,87 %
06.02.2022 14:28 6,7 C 5,6 C 3,3 C 94 % 1001,1 hPa 0,0 l/m 0 min 2 min 27 W/m 25,7 km/h (4 Bft) 100,00 %
06.02.2022 14:30 6,6 C 5,6 C 3,3 C 94 % 1000,9 hPa 0,0 l/m 0 min 2 min 30 W/m 16,1 km/h (3 Bft) 97,87 %
06.02.2022 14:32 6,6 C 5,6 C 3,3 C 94 % 1001,0 hPa 0,0 l/m 0 min 2 min 32 W/m 16,1 km/h (3 Bft) 95,74 %
06.02.2022 14:34 6,5 C 5,6 C 3,3 C 94 % 1001,1 hPa 0,0 l/m 0 min 2 min 31 W/m 16,1 km/h (3 Bft) 95,74 %
06.02.2022 14:36 6,5 C 5,6 C 3,3 C 94 % 1001,1 hPa 0,0 l/m 0 min 2 min 30 W/m 16,1 km/h (3 Bft) 97,87 %
06.02.2022 14:38 6,5 C 5,6 C 3,3 C 94 % 1001,0 hPa 0,0 l/m 0 min 2 min 26 W/m 19,3 km/h (3 Bft) 97,87 %
06.02.2022 14:40 6,5 C 5,6 C 3,3 C 94 % 1001,2 hPa 0,0 l/m 0 min 2 min 26 W/m 12,9 km/h (3 Bft) 97,83 %
06.02.2022 14:42 6,4 C 5,6 C 3,3 C 94 % 1001,0 hPa 0,0 l/m 0 min 2 min 27 W/m 19,3 km/h (3 Bft) 97,87 %
06.02.2022 14:44 6,4 C 5,6 C 3,3 C 94 % 1001,1 hPa 0,0 l/m 0 min 2 min 28 W/m 16,1 km/h (3 Bft) 97,87 %
06.02.2022 14:46 6,4 C 5,6 C 3,3 C 94 % 1001,0 hPa 0,0 l/m 0 min 2 min 31 W/m 12,9 km/h (3 Bft) 97,87 %
06.02.2022 14:48 6,4 C 5,6 C 3,3 C 94 % 1001,0 hPa 0,0 l/m 0 min 2 min 34 W/m 19,3 km/h (3 Bft) 97,87 %
06.02.2022 14:50 6,4 C 5,6 C 3,3 C 94 % 1001,1 hPa 0,0 l/m 0 min 2 min 34 W/m 12,9 km/h (3 Bft) 97,87 %
06.02.2022 14:52 6,4 C 5,6 C 3,3 C 94 % 1001,0 hPa 0,0 l/m 0 min 2 min 33 W/m 16,1 km/h (3 Bft) 97,83 %
06.02.2022 14:54 6,4 C 6,1 C 3,3 C 94 % 1001,0 hPa 0,0 l/m 0 min 2 min 33 W/m 12,9 km/h (3 Bft) 97,87 %
06.02.2022 14:56 6,4 C 5,6 C 3,3 C 93 % 1001,1 hPa 0,0 l/m 0 min 0 min 33 W/m 12,9 km/h (3 Bft) 95,74 %
06.02.2022 14:58 6,4 C 5,6 C 3,3 C 93 % 1001,2 hPa 0,0 l/m 0 min 2 min 30 W/m 16,1 km/h (3 Bft) 95,74 %
06.02.2022 15:00 6,4 C 5,6 C 3,3 C 93 % 1001,3 hPa 0,0 l/m 0 min 0 min 27 W/m 12,9 km/h (3 Bft) 97,87 %
06.02.2022 15:02 6,5 C 5,6 C 3,3 C 93 % 1001,2 hPa 0,0 l/m 0 min 0 min 26 W/m 9,7 km/h (2 Bft) 97,87 %
06.02.2022 15:04 6,5 C 5,6 C 3,3 C 93 % 1001,2 hPa 0,0 l/m 0 min 0 min 24 W/m 16,1 km/h (3 Bft) 100,00 %
06.02.2022 15:06 6,4 C 5,6 C 3,3 C 93 % 1001,3 hPa 0,0 l/m 0 min 0 min 22 W/m 16,1 km/h (3 Bft) 97,87 %
06.02.2022 15:08 6,5 C 5,6 C 3,3 C 93 % 1001,2 hPa 0,0 l/m 0 min 0 min 21 W/m 12,9 km/h (3 Bft) 97,87 %
06.02.2022 15:10 6,5 C 6,1 C 3,3 C 93 % 1001,2 hPa 0,0 l/m 0 min 2 min 21 W/m 16,1 km/h (3 Bft) 97,87 %
06.02.2022 15:12 6,5 C 6,1 C 3,3 C 93 % 1001,2 hPa 0,0 l/m 0 min 2 min 24 W/m 22,5 km/h (4 Bft) 97,87 %
06.02.2022 15:14 6,5 C 6,1 C 3,3 C 93 % 1001,2 hPa 0,0 l/m 0 min 2 min 26 W/m 16,1 km/h (3 Bft) 95,74 %
06.02.2022 15:16 6,5 C 6,1 C 3,3 C 93 % 1001,2 hPa 0,0 l/m 0 min 2 min 28 W/m 12,9 km/h (3 Bft) 97,83 %
06.02.2022 15:18 6,5 C 6,1 C 3,3 C 93 % 1001,3 hPa 0,0 l/m 0 min 2 min 31 W/m 19,3 km/h (3 Bft) 95,74 %
06.02.2022 15:20 6,5 C 6,1 C 3,3 C 93 % 1001,2 hPa 0,0 l/m 0 min 2 min 33 W/m 12,9 km/h (3 Bft) 97,87 %
06.02.2022 15:22 6,6 C 6,1 C 3,3 C 93 % 1001,3 hPa 0,0 l/m 0 min 2 min 37 W/m 12,9 km/h (3 Bft) 97,87 %
06.02.2022 15:24 6,6 C 6,1 C 3,3 C 93 % 1001,3 hPa 0,0 l/m 0 min 2 min 40 W/m 12,9 km/h (3 Bft) 95,74 %
06.02.2022 15:26 6,6 C 6,1 C 3,3 C 93 % 1001,4 hPa 0,0 l/m 0 min 0 min 42 W/m 12,9 km/h (3 Bft) 95,74 %
06.02.2022 15:28 6,6 C 6,1 C 3,3 C 93 % 1001,3 hPa 0,0 l/m 0 min 0 min 43 W/m 22,5 km/h (4 Bft) 95,65 %
06.02.2022 15:30 6,6 C 6,1 C 3,3 C 93 % 1001,4 hPa 0,0 l/m 0 min 0 min 46 W/m 12,9 km/h (3 Bft) 97,87 %
06.02.2022 15:32 6,6 C 6,1 C 3,3 C 93 % 1001,4 hPa 0,0 l/m 0 min 0 min 47 W/m 12,9 km/h (3 Bft) 97,87 %
06.02.2022 15:34 6,7 C 6,1 C 3,3 C 93 % 1001,4 hPa 0,0 l/m 0 min 0 min 45 W/m 12,9 km/h (3 Bft) 97,87 %
06.02.2022 15:36 6,7 C 6,1 C 3,3 C 93 % 1001,5 hPa 0,0 l/m 0 min 0 min 44 W/m 12,9 km/h (3 Bft) 97,87 %
06.02.2022 15:38 6,7 C 6,1 C 3,3 C 93 % 1001,5 hPa 0,0 l/m 0 min 0 min 44 W/m 12,9 km/h (3 Bft) 97,83 %
06.02.2022 15:40 6,7 C 6,1 C 3,3 C 93 % 1001,5 hPa 0,0 l/m 0 min 0 min 44 W/m 16,1 km/h (3 Bft) 97,87 %
06.02.2022 15:42 6,7 C 6,1 C 3,3 C 93 % 1001,5 hPa 0,0 l/m 0 min 0 min 41 W/m 12,9 km/h (3 Bft) 97,87 %
06.02.2022 15:44 6,7 C 6,1 C 3,3 C 93 % 1001,6 hPa 0,0 l/m 0 min 0 min 39 W/m 12,9 km/h (3 Bft) 97,87 %
06.02.2022 15:46 6,7 C 6,1 C 3,3 C 93 % 1001,7 hPa 0,0 l/m 0 min 0 min 35 W/m 16,1 km/h (3 Bft) 97,87 %
06.02.2022 15:48 6,7 C 6,1 C 3,3 C 93 % 1001,7 hPa 0,0 l/m 0 min 0 min 32 W/m 12,9 km/h (3 Bft) 97,87 %
06.02.2022 15:50 6,7 C 6,1 C 3,3 C 93 % 1001,7 hPa 0,0 l/m 0 min 0 min 31 W/m 25,7 km/h (4 Bft) 97,87 %
06.02.2022 15:52 6,8 C 6,1 C 3,3 C 93 % 1001,8 hPa 0,0 l/m 0 min 0 min 32 W/m 25,7 km/h (4 Bft) 100,00 %
06.02.2022 15:54 6,8 C 6,1 C 3,3 C 93 % 1001,8 hPa 0,0 l/m 0 min 0 min 31 W/m 16,1 km/h (3 Bft) 100,00 %
06.02.2022 15:56 6,8 C 6,1 C 3,3 C 93 % 1001,9 hPa 0,0 l/m 0 min 2 min 33 W/m 16,1 km/h (3 Bft) 100,00 %
06.02.2022 15:58 6,8 C 6,1 C 3,3 C 93 % 1001,8 hPa 0,0 l/m 0 min 2 min 34 W/m 25,7 km/h (4 Bft) 100,00 %
06.02.2022 16:00 6,8 C 6,1 C 3,3 C 93 % 1001,7 hPa 0,0 l/m 0 min 2 min 31 W/m 19,3 km/h (3 Bft) 100,00 %
06.02.2022 16:02 6,8 C 6,1 C 3,3 C 93 % 1001,8 hPa 0,0 l/m 0 min 2 min 31 W/m 25,7 km/h (4 Bft) 100,00 %
06.02.2022 16:04 6,8 C 6,1 C 3,3 C 92 % 1001,8 hPa 0,0 l/m 0 min 2 min 28 W/m 16,1 km/h (3 Bft) 100,00 %
06.02.2022 16:06 6,8 C 6,1 C 3,3 C 92 % 1001,8 hPa 0,0 l/m 0 min 2 min 29 W/m 16,1 km/h (3 Bft) 97,87 %
06.02.2022 16:08 6,8 C 6,1 C 3,3 C 92 % 1001,8 hPa 0,0 l/m 0 min 2 min 32 W/m 16,1 km/h (3 Bft) 100,00 %
06.02.2022 16:10 6,8 C 6,1 C 3,3 C 92 % 1001,8 hPa 0,2 l/m 0 min 2 min 28 W/m 19,3 km/h (3 Bft) 100,00 %
06.02.2022 16:12 6,7 C 6,1 C 3,3 C 93 % 1001,8 hPa 0,0 l/m 0 min 2 min 26 W/m 19,3 km/h (3 Bft) 100,00 %
06.02.2022 16:14 6,7 C 6,1 C 3,3 C 93 % 1001,7 hPa 0,0 l/m 0 min 2 min 26 W/m 16,1 km/h (3 Bft) 97,83 %
06.02.2022 16:16 6,7 C 6,1 C 3,3 C 93 % 1001,8 hPa 0,0 l/m 0 min 2 min 31 W/m 16,1 km/h (3 Bft) 100,00 %
06.02.2022 16:18 6,7 C 6,1 C 3,3 C 93 % 1001,8 hPa 0,0 l/m 0 min 2 min 36 W/m 12,9 km/h (3 Bft) 100,00 %
06.02.2022 16:20 6,7 C 6,1 C 3,3 C 93 % 1001,8 hPa 0,0 l/m 0 min 0 min 36 W/m 16,1 km/h (3 Bft) 97,87 %
06.02.2022 16:22 6,7 C 6,1 C 3,3 C 92 % 1001,8 hPa 0,0 l/m 0 min 0 min 24 W/m 9,7 km/h (2 Bft) 97,87 %
06.02.2022 16:24 6,7 C 6,1 C 3,3 C 92 % 1001,8 hPa 0,0 l/m 0 min 0 min 19 W/m 12,9 km/h (3 Bft) 97,87 %
06.02.2022 16:26 6,7 C 6,1 C 3,3 C 92 % 1001,7 hPa 0,0 l/m 0 min 2 min 22 W/m 16,1 km/h (3 Bft) 97,83 %
06.02.2022 16:28 6,7 C 6,1 C 3,3 C 92 % 1001,7 hPa 0,0 l/m 0 min 2 min 26 W/m 12,9 km/h (3 Bft) 97,87 %
06.02.2022 16:30 6,7 C 6,1 C 3,3 C 92 % 1001,6 hPa 0,0 l/m 0 min 0 min 29 W/m 19,3 km/h (3 Bft) 97,87 %
06.02.2022 16:32 6,7 C 6,1 C 3,3 C 92 % 1001,6 hPa 0,0 l/m 0 min 2 min 30 W/m 22,5 km/h (4 Bft) 97,87 %
06.02.2022 16:34 6,7 C 6,1 C 3,3 C 93 % 1001,6 hPa 0,0 l/m 0 min 0 min 27 W/m 12,9 km/h (3 Bft) 97,87 %
06.02.2022 16:36 6,7 C 6,1 C 3,3 C 93 % 1001,6 hPa 0,0 l/m 0 min 0 min 25 W/m 19,3 km/h (3 Bft) 97,87 %
06.02.2022 16:38 6,7 C 6,1 C 3,3 C 93 % 1001,5 hPa 0,0 l/m 0 min 2 min 22 W/m 22,5 km/h (4 Bft) 95,65 %
06.02.2022 16:40 6,7 C 6,1 C 3,3 C 92 % 1001,5 hPa 0,0 l/m 0 min 0 min 19 W/m 22,5 km/h (4 Bft) 93,62 %
06.02.2022 16:42 6,7 C 6,1 C 3,3 C 92 % 1001,6 hPa 0,0 l/m 0 min 0 min 16 W/m 22,5 km/h (4 Bft) 95,74 %
06.02.2022 16:44 6,7 C 6,1 C 3,3 C 92 % 1001,6 hPa 0,0 l/m 0 min 0 min 16 W/m 6,4 km/h (2 Bft) 97,87 %
06.02.2022 16:46 6,7 C 6,1 C 3,3 C 92 % 1001,7 hPa 0,0 l/m 0 min 0 min 12 W/m 19,3 km/h (3 Bft) 97,87 %
06.02.2022 16:48 6,7 C 6,1 C 3,3 C 92 % 1001,6 hPa 0,0 l/m 0 min 0 min 11 W/m 16,1 km/h (3 Bft) 93,62 %
06.02.2022 16:50 6,7 C 6,1 C 3,3 C 92 % 1001,6 hPa 0,0 l/m 0 min 0 min 12 W/m 29,0 km/h (5 Bft) 97,83 %
06.02.2022 16:52 6,7 C 6,1 C 3,3 C 92 % 1001,6 hPa 0,0 l/m 0 min 2 min 14 W/m 16,1 km/h (3 Bft) 97,87 %
06.02.2022 16:54 6,8 C 6,1 C 3,3 C 92 % 1001,6 hPa 0,0 l/m 0 min 0 min 16 W/m 19,3 km/h (3 Bft) 95,74 %
06.02.2022 16:56 6,8 C 6,1 C 3,3 C 92 % 1001,6 hPa 0,0 l/m 0 min 0 min 16 W/m 16,1 km/h (3 Bft) 97,87 %
06.02.2022 16:58 6,8 C 6,1 C 3,3 C 92 % 1001,6 hPa 0,0 l/m 0 min 0 min 18 W/m 16,1 km/h (3 Bft) 97,87 %
06.02.2022 17:00 6,8 C 6,1 C 3,3 C 92 % 1001,5 hPa 0,0 l/m 0 min 0 min 18 W/m 16,1 km/h (3 Bft) 97,87 %
06.02.2022 17:02 6,8 C 6,1 C 3,3 C 92 % 1001,5 hPa 0,0 l/m 0 min 0 min 17 W/m 22,5 km/h (4 Bft) 97,83 %
06.02.2022 17:04 6,7 C 6,1 C 3,3 C 92 % 1001,5 hPa 0,0 l/m 0 min 0 min 17 W/m 25,7 km/h (4 Bft) 95,74 %
06.02.2022 17:06 6,7 C 6,1 C 3,3 C 92 % 1001,5 hPa 0,0 l/m 0 min 0 min 17 W/m 19,3 km/h (3 Bft) 97,87 %
06.02.2022 17:08 6,7 C 6,1 C 3,3 C 92 % 1001,4 hPa 0,0 l/m 0 min 0 min 15 W/m 12,9 km/h (3 Bft) 97,87 %
06.02.2022 17:10 6,7 C 6,1 C 3,3 C 92 % 1001,4 hPa 0,0 l/m 0 min 0 min 13 W/m 19,3 km/h (3 Bft) 97,87 %
06.02.2022 17:12 6,7 C 6,1 C 3,3 C 92 % 1001,5 hPa 0,0 l/m 0 min 0 min 12 W/m 16,1 km/h (3 Bft) 95,74 %
06.02.2022 17:14 6,7 C 6,1 C 3,3 C 92 % 1001,5 hPa 0,0 l/m 0 min 0 min 11 W/m 19,3 km/h (3 Bft) 95,65 %
06.02.2022 17:16 6,7 C 6,1 C 3,3 C 92 % 1001,5 hPa 0,0 l/m 0 min 0 min 11 W/m 12,9 km/h (3 Bft) 97,87 %
06.02.2022 17:18 6,7 C 6,1 C 3,3 C 92 % 1001,5 hPa 0,0 l/m 0 min 0 min 12 W/m 29,0 km/h (5 Bft) 97,87 %
06.02.2022 17:20 6,7 C 6,1 C 3,3 C 92 % 1001,4 hPa 0,0 l/m 0 min 0 min 12 W/m 16,1 km/h (3 Bft) 97,87 %
06.02.2022 17:22 6,7 C 6,1 C 3,3 C 92 % 1001,5 hPa 0,0 l/m 0 min 0 min 11 W/m 25,7 km/h (4 Bft) 95,74 %
06.02.2022 17:24 6,7 C 6,1 C 3,3 C 92 % 1001,4 hPa 0,0 l/m 0 min 0 min 9 W/m 19,3 km/h (3 Bft) 95,74 %
06.02.2022 17:26 6,7 C 6,1 C 3,3 C 92 % 1001,4 hPa 0,0 l/m 0 min 0 min 7 W/m 25,7 km/h (4 Bft) 97,83 %
06.02.2022 17:28 6,7 C 6,1 C 3,3 C 92 % 1001,5 hPa 0,0 l/m 0 min 0 min 5 W/m 25,7 km/h (4 Bft) 97,87 %
06.02.2022 17:30 6,7 C 6,1 C 2,8 C 92 % 1001,4 hPa 0,0 l/m 0 min 0 min 4 W/m 22,5 km/h (4 Bft) 95,74 %
06.02.2022 17:32 6,7 C 6,1 C 2,8 C 91 % 1001,4 hPa 0,0 l/m 0 min 0 min 0 W/m 19,3 km/h (3 Bft) 97,87 %
06.02.2022 17:34 6,7 C 6,1 C 2,8 C 91 % 1001,4 hPa 0,0 l/m 0 min 0 min 0 W/m 29,0 km/h (5 Bft) 95,74 %
06.02.2022 17:36 6,7 C 6,1 C 2,8 C 91 % 1001,4 hPa 0,0 l/m 0 min 0 min 0 W/m 16,1 km/h (3 Bft) 89,36 %
06.02.2022 17:38 6,7 C 6,1 C 2,8 C 91 % 1001,4 hPa 0,0 l/m 0 min 0 min 0 W/m 19,3 km/h (3 Bft) 93,48 %
06.02.2022 17:40 6,7 C 6,1 C 2,8 C 91 % 1001,5 hPa 0,0 l/m 0 min 0 min 0 W/m 19,3 km/h (3 Bft) 95,74 %
06.02.2022 17:42 6,7 C 6,1 C 2,8 C 91 % 1001,4 hPa 0,0 l/m 0 min 0 min 0 W/m 19,3 km/h (3 Bft) 93,62 %
06.02.2022 17:44 6,7 C 6,1 C 2,8 C 91 % 1001,4 hPa 0,0 l/m 0 min 0 min 0 W/m 16,1 km/h (3 Bft) 97,87 %
06.02.2022 17:46 6,7 C 6,1 C 2,8 C 91 % 1001,4 hPa 0,0 l/m 0 min 0 min 0 W/m 29,0 km/h (5 Bft) 95,74 %
06.02.2022 17:48 6,8 C 6,1 C 2,8 C 91 % 1001,3 hPa 0,0 l/m 0 min 0 min 0 W/m 19,3 km/h (3 Bft) 97,87 %
06.02.2022 17:50 6,8 C 6,1 C 3,3 C 91 % 1001,4 hPa 0,0 l/m 0 min 0 min 0 W/m 22,5 km/h (4 Bft) 95,65 %
06.02.2022 17:52 6,8 C 6,1 C 3,3 C 90 % 1001,3 hPa 0,0 l/m 0 min 0 min 0 W/m 22,5 km/h (4 Bft) 97,87 %
06.02.2022 17:54 6,9 C 6,1 C 3,3 C 90 % 1001,3 hPa 0,0 l/m 0 min 0 min 0 W/m 6,4 km/h (2 Bft) 95,74 %
06.02.2022 17:56 6,9 C 6,1 C 3,3 C 90 % 1001,3 hPa 0,0 l/m 0 min 0 min 0 W/m 19,3 km/h (3 Bft) 57,45 %
06.02.2022 17:58 6,9 C 6,1 C 3,3 C 90 % 1001,3 hPa 0,0 l/m 0 min 0 min 0 W/m 19,3 km/h (3 Bft) 93,48 %
06.02.2022 18:00 6,9 C 6,1 C 3,3 C 90 % 1001,2 hPa 0,0 l/m 0 min 0 min 0 W/m 16,1 km/h (3 Bft) 97,83 %
06.02.2022 18:02 6,9 C 6,1 C 3,3 C 90 % 1001,2 hPa 0,0 l/m 0 min 2 min 0 W/m 16,1 km/h (3 Bft) 97,87 %
06.02.2022 18:04 6,9 C 6,1 C 3,3 C 90 % 1001,2 hPa 0,0 l/m 0 min 2 min 0 W/m 19,3 km/h (3 Bft) 97,87 %
06.02.2022 18:08 6,9 C 6,1 C 3,3 C 90 % 1001,2 hPa 0,0 l/m 0 min 4 min 0 W/m 19,3 km/h (3 Bft) 96,81 %
06.02.2022 18:10 6,9 C 6,1 C 3,3 C 90 % 1001,2 hPa 0,0 l/m 0 min 2 min 0 W/m 16,1 km/h (3 Bft) 97,87 %
06.02.2022 18:12 6,9 C 6,1 C 3,3 C 90 % 1001,0 hPa 0,0 l/m 0 min 2 min 0 W/m 25,7 km/h (4 Bft) 93,48 %
06.02.2022 18:14 6,9 C 6,1 C 3,3 C 90 % 1001,0 hPa 0,0 l/m 0 min 2 min 0 W/m 16,1 km/h (3 Bft) 95,74 %
06.02.2022 18:16 6,9 C 6,1 C 3,3 C 90 % 1001,0 hPa 0,0 l/m 0 min 0 min 0 W/m 19,3 km/h (3 Bft) 97,87 %
06.02.2022 18:18 6,9 C 6,1 C 3,3 C 90 % 1000,9 hPa 0,0 l/m 0 min 2 min 0 W/m 16,1 km/h (3 Bft) 95,74 %
06.02.2022 18:20 7,0 C 6,1 C 3,3 C 90 % 1000,9 hPa 0,0 l/m 0 min 2 min 0 W/m 16,1 km/h (3 Bft) 97,87 %
06.02.2022 18:22 7,0 C 6,1 C 2,8 C 90 % 1000,8 hPa 0,0 l/m 0 min 2 min 0 W/m 12,9 km/h (3 Bft) 97,87 %
06.02.2022 18:24 6,9 C 6,1 C 2,8 C 90 % 1000,7 hPa 0,0 l/m 0 min 2 min 0 W/m 22,5 km/h (4 Bft) 97,83 %
06.02.2022 18:26 6,9 C 6,1 C 2,8 C 90 % 1000,7 hPa 0,0 l/m 0 min 2 min 0 W/m 16,1 km/h (3 Bft) 95,74 %
06.02.2022 18:28 6,9 C 6,1 C 2,8 C 90 % 1000,6 hPa 0,0 l/m 0 min 2 min 0 W/m 22,5 km/h (4 Bft) 97,87 %
06.02.2022 18:30 6,9 C 6,1 C 2,8 C 90 % 1000,7 hPa 0,2 l/m 0 min 2 min 0 W/m 19,3 km/h (3 Bft) 97,87 %
06.02.2022 18:32 6,9 C 6,1 C 2,8 C 90 % 1000,5 hPa 0,0 l/m 0 min 2 min 0 W/m 32,2 km/h (5 Bft) 97,87 %
06.02.2022 18:34 6,9 C 6,1 C 2,8 C 90 % 1000,7 hPa 0,0 l/m 0 min 2 min 0 W/m 48,3 km/h (6 Bft) 97,87 %
06.02.2022 18:36 7,0 C 6,1 C 2,8 C 90 % 1001,2 hPa 0,0 l/m 0 min 2 min 0 W/m 29,0 km/h (5 Bft) 97,83 %
06.02.2022 18:38 6,9 C 5,6 C 2,8 C 90 % 1002,1 hPa 0,2 l/m 0 min 2 min 0 W/m 45,1 km/h (6 Bft) 97,87 %
06.02.2022 18:40 6,2 C 4,4 C 1,7 C 88 % 1002,2 hPa 0,4 l/m 0 min 2 min 0 W/m 35,4 km/h (5 Bft) 97,87 %
06.02.2022 18:42 5,6 C 3,9 C 1,7 C 89 % 1001,9 hPa 0,4 l/m 0 min 2 min 0 W/m 25,7 km/h (4 Bft) 97,87 %
06.02.2022 18:44 5,2 C 3,3 C 1,7 C 90 % 1001,7 hPa 0,0 l/m 0 min 2 min 0 W/m 32,2 km/h (5 Bft) 100,00 %
06.02.2022 18:46 4,9 C 3,3 C 1,7 C 90 % 1001,7 hPa 0,2 l/m 0 min 2 min 0 W/m 25,7 km/h (4 Bft) 100,00 %
06.02.2022 18:48 4,8 C 3,3 C 1,7 C 91 % 1001,8 hPa 0,0 l/m 0 min 2 min 0 W/m 35,4 km/h (5 Bft) 100,00 %
06.02.2022 18:50 4,7 C 3,3 C 1,7 C 92 % 1001,6 hPa 0,2 l/m 0 min 2 min 0 W/m 32,2 km/h (5 Bft) 100,00 %
06.02.2022 18:52 4,6 C 3,3 C 1,7 C 92 % 1001,7 hPa 0,0 l/m 0 min 2 min 0 W/m 32,2 km/h (5 Bft) 100,00 %
06.02.2022 18:54 4,6 C 3,3 C 1,7 C 93 % 1001,8 hPa 0,2 l/m 0 min 2 min 0 W/m 25,7 km/h (4 Bft) 100,00 %
06.02.2022 18:56 4,6 C 3,3 C 1,7 C 93 % 1001,8 hPa 0,0 l/m 0 min 0 min 0 W/m 25,7 km/h (4 Bft) 100,00 %
06.02.2022 18:58 4,6 C 3,3 C 1,7 C 93 % 1001,7 hPa 0,0 l/m 0 min 0 min 0 W/m 19,3 km/h (3 Bft) 97,83 %
06.02.2022 19:00 4,6 C 3,3 C 1,7 C 93 % 1001,6 hPa 0,0 l/m 0 min 0 min 0 W/m 32,2 km/h (5 Bft) 100,00 %
06.02.2022 19:02 4,6 C 3,9 C 1,7 C 93 % 1001,6 hPa 0,0 l/m 0 min 0 min 0 W/m 19,3 km/h (3 Bft) 100,00 %
06.02.2022 19:04 4,6 C 3,9 C 1,7 C 94 % 1001,7 hPa 0,0 l/m 0 min 0 min 0 W/m 22,5 km/h (4 Bft) 100,00 %
06.02.2022 19:06 4,6 C 3,9 C 1,7 C 94 % 1001,5 hPa 0,0 l/m 0 min 2 min 0 W/m 19,3 km/h (3 Bft) 76,60 %
06.02.2022 19:08 4,6 C 3,9 C 1,7 C 94 % 1001,5 hPa 0,0 l/m 0 min 2 min 0 W/m 19,3 km/h (3 Bft) 72,73 %
06.02.2022 19:10 4,7 C 3,9 C 1,7 C 94 % 1001,5 hPa 0,0 l/m 0 min 2 min 0 W/m 19,3 km/h (3 Bft) 100,00 %
06.02.2022 19:12 4,7 C 3,9 C 1,7 C 94 % 1001,8 hPa 0,0 l/m 0 min 2 min 0 W/m 19,3 km/h (3 Bft) 100,00 %
06.02.2022 19:14 4,7 C 3,9 C 1,7 C 94 % 1002,1 hPa 0,0 l/m 0 min 2 min 0 W/m 48,3 km/h (6 Bft) 97,87 %
06.02.2022 19:16 4,7 C 3,9 C 1,7 C 94 % 1002,2 hPa 0,0 l/m 0 min 2 min 0 W/m 35,4 km/h (5 Bft) 100,00 %
06.02.2022 19:18 4,7 C 3,9 C 1,7 C 94 % 1002,2 hPa 0,0 l/m 0 min 2 min 0 W/m 32,2 km/h (5 Bft) 100,00 %
06.02.2022 19:20 4,8 C 3,9 C 1,7 C 94 % 1002,2 hPa 0,0 l/m 0 min 2 min 0 W/m 64,4 km/h (8 Bft) 100,00 %
06.02.2022 19:22 4,8 C 3,9 C 1,7 C 94 % 1002,3 hPa 0,0 l/m 0 min 2 min 0 W/m 35,4 km/h (5 Bft) 100,00 %
06.02.2022 19:24 4,8 C 3,9 C 1,7 C 94 % 1002,4 hPa 0,2 l/m 0 min 2 min 0 W/m 38,6 km/h (5 Bft) 100,00 %
06.02.2022 19:26 4,7 C 3,9 C 1,7 C 94 % 1002,5 hPa 0,2 l/m 0 min 2 min 0 W/m 29,0 km/h (5 Bft) 100,00 %
06.02.2022 19:28 4,7 C 3,9 C 1,7 C 94 % 1002,5 hPa 0,0 l/m 0 min 2 min 0 W/m 45,1 km/h (6 Bft) 100,00 %
06.02.2022 19:30 4,7 C 3,9 C 1,7 C 94 % 1002,4 hPa 0,0 l/m 0 min 2 min 0 W/m 29,0 km/h (5 Bft) 100,00 %
06.02.2022 19:32 4,6 C 3,9 C 1,7 C 94 % 1002,5 hPa 0,2 l/m 0 min 2 min 0 W/m 32,2 km/h (5 Bft) 100,00 %
06.02.2022 19:34 4,6 C 3,3 C 1,7 C 94 % 1002,5 hPa 0,2 l/m 0 min 2 min 0 W/m 35,4 km/h (5 Bft) 100,00 %
06.02.2022 19:36 4,5 C 3,3 C 1,7 C 94 % 1002,5 hPa 0,0 l/m 0 min 2 min 0 W/m 22,5 km/h (4 Bft) 100,00 %
06.02.2022 19:38 4,4 C 3,3 C 1,7 C 94 % 1002,4 hPa 0,0 l/m 0 min 2 min 0 W/m 29,0 km/h (5 Bft) 100,00 %
06.02.2022 19:40 4,3 C 3,3 C 1,1 C 94 % 1002,4 hPa 0,2 l/m 0 min 2 min 0 W/m 22,5 km/h (4 Bft) 100,00 %
06.02.2022 19:42 4,3 C 3,3 C 1,1 C 95 % 1002,2 hPa 0,0 l/m 0 min 2 min 0 W/m 29,0 km/h (5 Bft) 100,00 %
06.02.2022 19:44 4,2 C 3,3 C 1,1 C 94 % 1002,1 hPa 0,0 l/m 0 min 2 min 0 W/m 22,5 km/h (4 Bft) 100,00 %
06.02.2022 19:46 4,2 C 3,3 C 1,1 C 94 % 1002,0 hPa 0,0 l/m 0 min 2 min 0 W/m 19,3 km/h (3 Bft) 100,00 %
06.02.2022 19:48 4,2 C 3,3 C 1,1 C 94 % 1002,0 hPa 0,0 l/m 0 min 2 min 0 W/m 35,4 km/h (5 Bft) 100,00 %
06.02.2022 19:50 4,2 C 3,3 C 1,1 C 94 % 1002,0 hPa 0,0 l/m 0 min 2 min 0 W/m 38,6 km/h (5 Bft) 100,00 %
06.02.2022 19:52 4,2 C 3,3 C 1,1 C 95 % 1001,9 hPa 0,0 l/m 0 min 0 min 0 W/m 25,7 km/h (4 Bft) 97,87 %
06.02.2022 19:54 4,3 C 3,3 C 1,1 C 95 % 1001,9 hPa 0,0 l/m 0 min 0 min 0 W/m 19,3 km/h (3 Bft) 97,87 %
06.02.2022 19:56 4,3 C 3,3 C 1,1 C 95 % 1001,9 hPa 0,0 l/m 0 min 0 min 0 W/m 12,9 km/h (3 Bft) 100,00 %
06.02.2022 19:58 4,3 C 3,9 C 1,1 C 94 % 1001,9 hPa 0,0 l/m 0 min 0 min 0 W/m 22,5 km/h (4 Bft) 100,00 %
06.02.2022 20:00 4,3 C 3,9 C 1,1 C 94 % 1002,0 hPa 0,0 l/m 0 min 0 min 0 W/m 19,3 km/h (3 Bft) 97,87 %
06.02.2022 20:02 4,3 C 3,3 C 1,1 C 95 % 1002,0 hPa 0,0 l/m 0 min 0 min 0 W/m 12,9 km/h (3 Bft) 95,74 %
06.02.2022 20:04 4,3 C 3,3 C 1,1 C 95 % 1001,9 hPa 0,0 l/m 0 min 0 min 0 W/m 16,1 km/h (3 Bft) 93,62 %
06.02.2022 20:06 4,3 C 3,9 C 1,1 C 95 % 1001,9 hPa 0,0 l/m 0 min 0 min 0 W/m 16,1 km/h (3 Bft) 91,49 %
06.02.2022 20:08 4,3 C 3,3 C 1,1 C 95 % 1002,0 hPa 0,0 l/m 0 min 0 min 0 W/m 12,9 km/h (3 Bft) 91,30 %
06.02.2022 20:10 4,3 C 3,9 C 1,1 C 95 % 1001,9 hPa 0,0 l/m 0 min 0 min 0 W/m 19,3 km/h (3 Bft) 93,62 %
06.02.2022 20:12 4,3 C 3,9 C 1,1 C 95 % 1002,1 hPa 0,0 l/m 0 min 0 min 0 W/m 16,1 km/h (3 Bft) 93,62 %
06.02.2022 20:14 4,3 C 3,9 C 1,1 C 95 % 1002,1 hPa 0,0 l/m 0 min 0 min 0 W/m 19,3 km/h (3 Bft) 93,62 %
06.02.2022 20:16 4,3 C 3,9 C 1,1 C 94 % 1002,1 hPa 0,0 l/m 0 min 0 min 0 W/m 16,1 km/h (3 Bft) 100,00 %
06.02.2022 20:18 4,3 C 3,9 C 1,1 C 95 % 1002,2 hPa 0,0 l/m 0 min 0 min 0 W/m 22,5 km/h (4 Bft) 97,87 %
06.02.2022 20:20 4,3 C 3,9 C 1,1 C 95 % 1002,2 hPa 0,0 l/m 0 min 0 min 0 W/m 12,9 km/h (3 Bft) 93,48 %
06.02.2022 20:22 4,3 C 3,9 C 1,7 C 95 % 1002,3 hPa 0,0 l/m 0 min 0 min 0 W/m 19,3 km/h (3 Bft) 91,67 %
06.02.2022 20:24 4,3 C 3,9 C 1,7 C 95 % 1002,2 hPa 0,0 l/m 0 min 0 min 0 W/m 12,9 km/h (3 Bft) 97,06 %
06.02.2022 20:26 4,3 C 3,9 C 1,7 C 95 % 1002,2 hPa 0,0 l/m 0 min 2 min 0 W/m 22,5 km/h (4 Bft) 97,87 %
06.02.2022 20:28 4,4 C 3,9 C 1,7 C 95 % 1002,2 hPa 0,0 l/m 0 min 2 min 0 W/m 16,1 km/h (3 Bft) 95,74 %
06.02.2022 20:30 4,4 C 3,9 C 1,7 C 95 % 1002,2 hPa 0,0 l/m 0 min 2 min 0 W/m 19,3 km/h (3 Bft) 93,48 %
06.02.2022 20:32 4,4 C 3,9 C 1,7 C 95 % 1002,2 hPa 0,0 l/m 0 min 2 min 0 W/m 12,9 km/h (3 Bft) 93,62 %
06.02.2022 20:34 4,4 C 3,9 C 1,7 C 95 % 1002,2 hPa 0,0 l/m 0 min 2 min 0 W/m 16,1 km/h (3 Bft) 93,62 %
06.02.2022 20:36 4,4 C 3,9 C 1,7 C 95 % 1002,3 hPa 0,0 l/m 0 min 2 min 0 W/m 16,1 km/h (3 Bft) 93,62 %
06.02.2022 20:38 4,4 C 3,9 C 1,7 C 95 % 1002,2 hPa 0,0 l/m 0 min 2 min 0 W/m 19,3 km/h (3 Bft) 95,74 %
06.02.2022 20:40 4,5 C 3,9 C 1,7 C 95 % 1002,1 hPa 0,0 l/m 0 min 2 min 0 W/m 16,1 km/h (3 Bft) 97,83 %
06.02.2022 20:42 4,5 C 3,9 C 1,7 C 95 % 1002,3 hPa 0,0 l/m 0 min 2 min 0 W/m 16,1 km/h (3 Bft) 93,48 %
06.02.2022 20:44 4,5 C 3,9 C 1,7 C 95 % 1002,3 hPa 0,0 l/m 0 min 0 min 0 W/m 16,1 km/h (3 Bft) 97,87 %
06.02.2022 20:46 4,6 C 3,9 C 1,7 C 95 % 1002,2 hPa 0,0 l/m 0 min 2 min 0 W/m 16,1 km/h (3 Bft) 97,87 %
06.02.2022 20:48 4,6 C 3,9 C 1,7 C 95 % 1002,1 hPa 0,0 l/m 0 min 2 min 0 W/m 22,5 km/h (4 Bft) 97,87 %
06.02.2022 20:50 4,6 C 3,9 C 1,7 C 95 % 1002,0 hPa 0,0 l/m 0 min 2 min 0 W/m 22,5 km/h (4 Bft) 97,87 %
06.02.2022 20:52 4,6 C 3,9 C 1,7 C 95 % 1002,1 hPa 0,0 l/m 0 min 2 min 0 W/m 12,9 km/h (3 Bft) 97,87 %
06.02.2022 20:54 4,6 C 3,9 C 1,7 C 95 % 1002,1 hPa 0,2 l/m 0 min 0 min 0 W/m 16,1 km/h (3 Bft) 97,83 %
06.02.2022 20:56 4,6 C 3,9 C 1,7 C 95 % 1002,1 hPa 0,0 l/m 0 min 0 min 0 W/m 12,9 km/h (3 Bft) 97,87 %
06.02.2022 20:58 4,6 C 3,9 C 1,7 C 95 % 1002,1 hPa 0,0 l/m 0 min 0 min 0 W/m 12,9 km/h (3 Bft) 97,87 %
06.02.2022 21:00 4,6 C 3,9 C 1,7 C 95 % 1002,2 hPa 0,0 l/m 0 min 0 min 0 W/m 9,7 km/h (2 Bft) 100,00 %
06.02.2022 21:02 4,6 C 3,9 C 1,7 C 95 % 1002,2 hPa 0,0 l/m 0 min 2 min 0 W/m 19,3 km/h (3 Bft) 100,00 %
06.02.2022 21:04 4,7 C 3,9 C 1,7 C 95 % 1002,3 hPa 0,0 l/m 0 min 2 min 0 W/m 16,1 km/h (3 Bft) 100,00 %
06.02.2022 21:06 4,6 C 3,9 C 1,7 C 95 % 1002,3 hPa 0,0 l/m 0 min 2 min 0 W/m 16,1 km/h (3 Bft) 100,00 %
06.02.2022 21:08 4,7 C 3,9 C 1,7 C 95 % 1002,2 hPa 0,0 l/m 0 min 2 min 0 W/m 22,5 km/h (4 Bft) 53,19 %
06.02.2022 21:10 4,7 C 3,9 C 1,7 C 95 % 1002,3 hPa 0,0 l/m 0 min 2 min 0 W/m 19,3 km/h (3 Bft) 100,00 %
06.02.2022 21:12 4,6 C 3,9 C 1,7 C 95 % 1002,5 hPa 0,0 l/m 0 min 2 min 0 W/m 19,3 km/h (3 Bft) 97,87 %
06.02.2022 21:14 4,6 C 3,9 C 1,7 C 95 % 1002,5 hPa 0,0 l/m 0 min 2 min 0 W/m 19,3 km/h (3 Bft) 100,00 %
06.02.2022 21:16 4,7 C 3,9 C 1,7 C 95 % 1002,7 hPa 0,0 l/m 0 min 0 min 0 W/m 19,3 km/h (3 Bft) 100,00 %
06.02.2022 21:18 4,7 C 3,9 C 1,7 C 95 % 1002,6 hPa 0,0 l/m 0 min 0 min 0 W/m 19,3 km/h (3 Bft) 100,00 %
06.02.2022 21:21 4,7 C 3,9 C 1,7 C 95 % 1002,7 hPa 0,0 l/m 0 min 0 min 0 W/m 16,1 km/h (3 Bft) 100,00 %
06.02.2022 21:22 4,7 C 3,9 C 1,7 C 95 % 1002,7 hPa 0,0 l/m 0 min 0 min 0 W/m 19,3 km/h (3 Bft) 100,00 %
06.02.2022 21:24 4,7 C 3,9 C 1,7 C 95 % 1002,8 hPa 0,0 l/m 0 min 0 min 0 W/m 16,1 km/h (3 Bft) 100,00 %
06.02.2022 21:26 4,7 C 3,9 C 1,7 C 95 % 1002,7 hPa 0,0 l/m 0 min 0 min 0 W/m 22,5 km/h (4 Bft) 97,87 %
06.02.2022 21:28 4,7 C 3,9 C 1,7 C 95 % 1002,7 hPa 0,0 l/m 0 min 2 min 0 W/m 16,1 km/h (3 Bft) 100,00 %
06.02.2022 21:30 4,7 C 4,4 C 1,7 C 95 % 1002,7 hPa 0,0 l/m 0 min 2 min 0 W/m 25,7 km/h (4 Bft) 100,00 %
06.02.2022 21:32 4,8 C 4,4 C 1,7 C 95 % 1002,7 hPa 0,0 l/m 0 min 2 min 0 W/m 25,7 km/h (4 Bft) 100,00 %
06.02.2022 21:34 4,8 C 4,4 C 1,7 C 95 % 1002,8 hPa 0,0 l/m 0 min 2 min 0 W/m 22,5 km/h (4 Bft) 100,00 %
06.02.2022 21:36 4,8 C 4,4 C 1,7 C 95 % 1002,7 hPa 0,0 l/m 0 min 2 min 0 W/m 25,7 km/h (4 Bft) 100,00 %
06.02.2022 21:38 4,8 C 4,4 C 1,7 C 95 % 1002,7 hPa 0,0 l/m 0 min 2 min 0 W/m 25,7 km/h (4 Bft) 97,87 %
06.02.2022 21:40 4,8 C 3,9 C 1,7 C 95 % 1002,6 hPa 0,0 l/m 0 min 2 min 0 W/m 25,7 km/h (4 Bft) 100,00 %
06.02.2022 21:42 4,7 C 3,9 C 1,7 C 95 % 1002,2 hPa 0,0 l/m 0 min 2 min 0 W/m 16,1 km/h (3 Bft) 97,87 %
06.02.2022 21:44 4,7 C 3,9 C 1,7 C 94 % 1002,0 hPa 0,0 l/m 0 min 2 min 0 W/m 25,7 km/h (4 Bft) 100,00 %
06.02.2022 21:46 4,6 C 3,9 C 1,7 C 94 % 1002,1 hPa 0,0 l/m 0 min 2 min 0 W/m 22,5 km/h (4 Bft) 100,00 %
06.02.2022 21:48 4,6 C 3,9 C 1,7 C 94 % 1002,2 hPa 0,0 l/m 0 min 2 min 0 W/m 19,3 km/h (3 Bft) 100,00 %
06.02.2022 21:50 4,5 C 3,9 C 1,7 C 94 % 1002,2 hPa 0,0 l/m 0 min 2 min 0 W/m 16,1 km/h (3 Bft) 97,87 %
06.02.2022 21:52 4,4 C 3,9 C 1,1 C 94 % 1002,3 hPa 0,0 l/m 0 min 2 min 0 W/m 19,3 km/h (3 Bft) 97,87 %
06.02.2022 21:54 4,3 C 3,3 C 1,1 C 94 % 1002,3 hPa 0,0 l/m 0 min 2 min 0 W/m 22,5 km/h (4 Bft) 97,83 %
06.02.2022 21:56 4,3 C 3,3 C 1,1 C 94 % 1002,3 hPa 0,0 l/m 0 min 2 min 0 W/m 25,7 km/h (4 Bft) 97,87 %
06.02.2022 21:58 4,3 C 3,3 C 1,1 C 94 % 1002,6 hPa 0,0 l/m 0 min 2 min 0 W/m 16,1 km/h (3 Bft) 97,87 %
06.02.2022 22:00 4,2 C 3,3 C 1,1 C 94 % 1002,8 hPa 0,0 l/m 0 min 2 min 0 W/m 19,3 km/h (3 Bft) 95,74 %
06.02.2022 22:02 4,2 C 3,3 C 1,1 C 94 % 1002,9 hPa 0,0 l/m 0 min 2 min 0 W/m 16,1 km/h (3 Bft) 97,87 %
06.02.2022 22:04 4,2 C 3,3 C 1,1 C 94 % 1003,0 hPa 0,0 l/m 0 min 2 min 0 W/m 16,1 km/h (3 Bft) 97,87 %
06.02.2022 22:06 4,2 C 3,3 C 1,1 C 94 % 1003,0 hPa 0,0 l/m 0 min 0 min 0 W/m 16,1 km/h (3 Bft) 97,83 %
06.02.2022 22:08 4,1 C 3,3 C 1,1 C 94 % 1003,1 hPa 0,0 l/m 0 min 0 min 0 W/m 16,1 km/h (3 Bft) 97,87 %
06.02.2022 22:10 4,1 C 3,3 C 1,1 C 94 % 1003,1 hPa 0,0 l/m 0 min 2 min 0 W/m 22,5 km/h (4 Bft) 97,87 %
06.02.2022 22:12 4,1 C 3,3 C 1,1 C 94 % 1003,2 hPa 0,0 l/m 0 min 0 min 0 W/m 19,3 km/h (3 Bft) 97,87 %
06.02.2022 22:14 4,1 C 3,3 C 1,1 C 94 % 1003,1 hPa 0,0 l/m 0 min 2 min 0 W/m 16,1 km/h (3 Bft) 97,87 %
06.02.2022 22:16 4,1 C 3,3 C 1,1 C 94 % 1003,1 hPa 0,0 l/m 0 min 2 min 0 W/m 25,7 km/h (4 Bft) 97,83 %
06.02.2022 22:18 4,1 C 3,3 C 1,1 C 94 % 1003,1 hPa 0,0 l/m 0 min 2 min 0 W/m 16,1 km/h (3 Bft) 95,74 %
06.02.2022 22:20 4,2 C 3,3 C 1,1 C 94 % 1003,1 hPa 0,0 l/m 0 min 0 min 0 W/m 16,1 km/h (3 Bft) 100,00 %
06.02.2022 22:22 4,2 C 3,9 C 1,1 C 94 % 1003,3 hPa 0,0 l/m 0 min 2 min 0 W/m 22,5 km/h (4 Bft) 100,00 %
06.02.2022 22:24 4,2 C 3,9 C 1,1 C 94 % 1003,3 hPa 0,0 l/m 0 min 2 min 0 W/m 16,1 km/h (3 Bft) 100,00 %
06.02.2022 22:26 4,2 C 3,9 C 1,1 C 94 % 1003,1 hPa 0,0 l/m 0 min 2 min 0 W/m 22,5 km/h (4 Bft) 100,00 %
06.02.2022 22:28 4,2 C 3,9 C 1,7 C 94 % 1003,2 hPa 0,0 l/m 0 min 0 min 0 W/m 22,5 km/h (4 Bft) 97,87 %
06.02.2022 22:30 4,3 C 3,9 C 1,7 C 94 % 1003,4 hPa 0,0 l/m 0 min 0 min 0 W/m 22,5 km/h (4 Bft) 95,65 %
06.02.2022 22:32 4,3 C 3,9 C 1,1 C 94 % 1003,5 hPa 0,0 l/m 0 min 2 min 0 W/m 19,3 km/h (3 Bft) 97,92 %
06.02.2022 22:34 4,3 C 3,9 C 1,1 C 95 % 1003,5 hPa 0,0 l/m 0 min 0 min 0 W/m 12,9 km/h (3 Bft) 97,87 %
06.02.2022 22:36 4,3 C 3,9 C 1,1 C 95 % 1003,6 hPa 0,0 l/m 0 min 0 min 0 W/m 19,3 km/h (3 Bft) 97,87 %
06.02.2022 22:38 4,3 C 3,9 C 1,1 C 95 % 1003,7 hPa 0,0 l/m 0 min 0 min 0 W/m 41,8 km/h (6 Bft) 95,74 %
06.02.2022 22:40 4,3 C 3,9 C 1,1 C 94 % 1003,7 hPa 0,0 l/m 0 min 0 min 0 W/m 16,1 km/h (3 Bft) 97,83 %
06.02.2022 22:42 4,3 C 3,9 C 1,1 C 94 % 1003,6 hPa 0,0 l/m 0 min 0 min 0 W/m 22,5 km/h (4 Bft) 97,87 %
06.02.2022 22:44 4,3 C 3,3 C 1,1 C 94 % 1003,7 hPa 0,0 l/m 0 min 0 min 0 W/m 16,1 km/h (3 Bft) 95,74 %
06.02.2022 22:46 4,2 C 3,3 C 1,1 C 94 % 1003,7 hPa 0,0 l/m 0 min 0 min 0 W/m 22,5 km/h (4 Bft) 95,74 %
06.02.2022 22:48 4,2 C 3,3 C 1,1 C 94 % 1003,8 hPa 0,0 l/m 0 min 0 min 0 W/m 19,3 km/h (3 Bft) 97,87 %
06.02.2022 22:50 4,2 C 3,3 C 1,1 C 94 % 1003,9 hPa 0,0 l/m 0 min 0 min 0 W/m 19,3 km/h (3 Bft) 97,87 %
06.02.2022 22:52 4,2 C 3,3 C 1,1 C 94 % 1003,8 hPa 0,0 l/m 0 min 0 min 0 W/m 32,2 km/h (5 Bft) 97,83 %
06.02.2022 22:54 4,2 C 3,3 C 1,1 C 94 % 1003,8 hPa 0,0 l/m 0 min 0 min 0 W/m 22,5 km/h (4 Bft) 97,87 %
06.02.2022 22:56 4,2 C 3,3 C 1,1 C 94 % 1003,9 hPa 0,0 l/m 0 min 0 min 0 W/m 16,1 km/h (3 Bft) 97,87 %
06.02.2022 22:58 4,2 C 3,3 C 1,1 C 94 % 1004,0 hPa 0,0 l/m 0 min 0 min 0 W/m 22,5 km/h (4 Bft) 97,87 %
06.02.2022 23:00 4,2 C 3,3 C 1,1 C 94 % 1004,1 hPa 0,0 l/m 0 min 0 min 0 W/m 16,1 km/h (3 Bft) 97,87 %
06.02.2022 23:02 4,2 C 3,3 C 1,1 C 94 % 1004,1 hPa 0,0 l/m 0 min 2 min 0 W/m 19,3 km/h (3 Bft) 95,74 %
06.02.2022 23:04 4,2 C 3,3 C 1,1 C 94 % 1004,2 hPa 0,0 l/m 0 min 0 min 0 W/m 25,7 km/h (4 Bft) 95,65 %
06.02.2022 23:06 4,2 C 3,3 C 1,1 C 94 % 1004,3 hPa 0,0 l/m 0 min 2 min 0 W/m 19,3 km/h (3 Bft) 51,16 %
06.02.2022 23:08 4,1 C 3,3 C 1,1 C 94 % 1004,1 hPa 0,0 l/m 0 min 0 min 0 W/m 16,1 km/h (3 Bft) 97,87 %
06.02.2022 23:10 4,1 C 3,3 C 1,1 C 94 % 1004,3 hPa 0,0 l/m 0 min 0 min 0 W/m 19,3 km/h (3 Bft) 100,00 %
06.02.2022 23:12 4,1 C 3,3 C 1,1 C 94 % 1004,3 hPa 0,0 l/m 0 min 0 min 0 W/m 35,4 km/h (5 Bft) 100,00 %
06.02.2022 23:14 4,1 C 3,3 C 1,1 C 93 % 1004,4 hPa 0,0 l/m 0 min 0 min 0 W/m 35,4 km/h (5 Bft) 100,00 %
06.02.2022 23:16 4,1 C 3,3 C 1,1 C 93 % 1004,6 hPa 0,0 l/m 0 min 0 min 0 W/m 19,3 km/h (3 Bft) 100,00 %
06.02.2022 23:18 4,1 C 3,3 C 1,1 C 93 % 1004,5 hPa 0,0 l/m 0 min 0 min 0 W/m 19,3 km/h (3 Bft) 100,00 %
06.02.2022 23:20 4,1 C 3,3 C 1,1 C 93 % 1004,6 hPa 0,0 l/m 0 min 0 min 0 W/m 35,4 km/h (5 Bft) 100,00 %
06.02.2022 23:22 4,1 C 3,3 C 1,1 C 93 % 1004,7 hPa 0,0 l/m 0 min 0 min 0 W/m 38,6 km/h (5 Bft) 100,00 %
06.02.2022 23:24 4,1 C 3,3 C 1,1 C 93 % 1004,7 hPa 0,0 l/m 0 min 0 min 0 W/m 22,5 km/h (4 Bft) 100,00 %
06.02.2022 23:26 4,1 C 3,3 C 1,1 C 93 % 1004,7 hPa 0,0 l/m 0 min 0 min 0 W/m 25,7 km/h (4 Bft) 97,87 %
06.02.2022 23:28 4,1 C 3,3 C 1,1 C 93 % 1004,7 hPa 0,0 l/m 0 min 0 min 0 W/m 19,3 km/h (3 Bft) 97,87 %
06.02.2022 23:30 4,1 C 3,3 C 1,1 C 93 % 1004,7 hPa 0,0 l/m 0 min 0 min 0 W/m 25,7 km/h (4 Bft) 97,87 %
06.02.2022 23:32 4,1 C 3,3 C 1,1 C 93 % 1004,7 hPa 0,0 l/m 0 min 0 min 0 W/m 29,0 km/h (5 Bft) 97,83 %
06.02.2022 23:34 4,0 C 3,3 C 1,1 C 92 % 1004,7 hPa 0,0 l/m 0 min 0 min 0 W/m 22,5 km/h (4 Bft) 95,74 %
06.02.2022 23:36 4,0 C 3,3 C 1,1 C 92 % 1004,7 hPa 0,0 l/m 0 min 0 min 0 W/m 16,1 km/h (3 Bft) 95,74 %
06.02.2022 23:38 4,0 C 3,3 C 0,6 C 92 % 1004,7 hPa 0,0 l/m 0 min 0 min 0 W/m 32,2 km/h (5 Bft) 93,62 %
06.02.2022 23:40 3,9 C 3,3 C 0,6 C 92 % 1004,7 hPa 0,0 l/m 0 min 0 min 0 W/m 32,2 km/h (5 Bft) 95,74 %
06.02.2022 23:42 3,9 C 3,3 C 0,6 C 92 % 1004,8 hPa 0,0 l/m 0 min 0 min 0 W/m 16,1 km/h (3 Bft) 94,29 %
06.02.2022 23:44 3,9 C 3,3 C 0,6 C 92 % 1005,0 hPa 0,0 l/m 0 min 0 min 0 W/m 19,3 km/h (3 Bft) 95,74 %
06.02.2022 23:46 3,9 C 3,3 C 0,6 C 92 % 1004,9 hPa 0,0 l/m 0 min 0 min 0 W/m 19,3 km/h (3 Bft) 95,65 %
06.02.2022 23:48 3,9 C 3,3 C 0,6 C 92 % 1004,9 hPa 0,0 l/m 0 min 0 min 0 W/m 16,1 km/h (3 Bft) 95,74 %
06.02.2022 23:50 3,9 C 3,3 C 0,6 C 92 % 1004,9 hPa 0,0 l/m 0 min 0 min 0 W/m 25,7 km/h (4 Bft) 95,74 %
06.02.2022 23:52 3,8 C 3,3 C 0,6 C 92 % 1005,0 hPa 0,0 l/m 0 min 0 min 0 W/m 19,3 km/h (3 Bft) 96,23 %
06.02.2022 23:54 3,9 C 3,3 C 0,6 C 92 % 1005,1 hPa 0,0 l/m 0 min 0 min 0 W/m 22,5 km/h (4 Bft) 93,62 %
06.02.2022 23:56 3,9 C 3,3 C 0,6 C 92 % 1005,0 hPa 0,0 l/m 0 min 0 min 0 W/m 19,3 km/h (3 Bft) 95,74 %
06.02.2022 23:58 3,9 C 3,3 C 0,6 C 92 % 1005,1 hPa 0,0 l/m 0 min 0 min 0 W/m 19,3 km/h (3 Bft) 95,74 %
_ Min-Zeit 23:52 18:44 23:38 00:00 13:40 - - - - 16:44 10:18
Minimum _ 3,8 C 3,3 C 0,6 C 79 % 998,9 hPa - - - - 6,4 km/h (2 Bft) 50,00 %
_ Max-Zeit 13:58 13:48 13:38 13:28 00:02 18:40 00:00 00:08 13:40 12:18 00:04
Maximum _ 8,3 C 7,2 C 5,0 C 96 % 1015,1 hPa 0,4 l/m 0 min 4 min 67 W/m 74,0 km/h
SW (8 Bft)
100,00 %
Durchschnitt _ 6,4 C 5,5 C 2,7 C 93 % 1005,6 hPa #17,2 l/m #0 min. #18:02 h 29 W/m 30,3 km/h (5 Bft) 97,20 %
© 2022 W. Hausmann